N4ASP-13 Weather Reports


Display with metric or nautical units.
time (UTC)temp
F
wind
direction
speed
MPH
gust
MPH
rain 1hr
in
rain 24hr
in
rain mn
in
humidity
%
barometer
mb
20210618184427 79 217 1.0 4.0 0.00 0.00 0.00 61 943.9
20210618184324 80 64 1.0 4.0 0.00 0.00 0.00 57 943.9
20210618184223 80 61 1.0 4.0 0.00 0.00 0.00 59 943.8
20210618184122 80 61 1.0 4.0 0.00 0.00 0.00 59 943.9
20210618184019 80 61 1.0 4.0 0.00 0.00 0.00 60 943.9
20210618183917 80 95 1.0 4.0 0.00 0.00 0.00 58 943.9
20210618183818 80 123 1.0 4.0 0.00 0.00 0.00 55 944.0
20210618183717 80 258 1.0 4.0 0.00 0.00 0.00 58 944.0
20210618183616 80 261 2.0 4.0 0.00 0.00 0.00 56 944.0
20210618183514 80 261 2.0 4.0 0.00 0.00 0.00 55 944.0
20210618183410 81 261 1.0 4.0 0.00 0.00 0.00 56 944.0
20210618183307 80 297 1.0 4.0 0.00 0.00 0.00 56 944.0
20210618183207 80 280 1.0 4.0 0.00 0.00 0.00 59 944.0
20210618183107 80 242 1.0 4.0 0.00 0.00 0.00 59 944.0
20210618183007 81 225 1.0 4.0 0.00 0.00 0.00 59 944.0
20210618182902 80 36 1.0 5.0 0.00 0.00 0.00 58 944.0
20210618182801 80 257 1.0 5.0 0.00 0.00 0.00 56 944.0
20210618182702 81 225 1.0 5.0 0.00 0.00 0.00 57 943.9
20210618182601 81 224 1.0 5.0 0.00 0.00 0.00 54 944.0
20210618182502 81 269 1.0 5.0 0.00 0.00 0.00 57 944.0
20210618182357 81 269 2.0 5.0 0.00 0.00 0.00 58 943.9
20210618182258 81 261 2.0 7.0 0.00 0.00 0.00 58 944.0
20210618182157 80 86 2.0 7.0 0.00 0.00 0.00 55 944.0
20210618182057 80 134 2.0 7.0 0.00 0.00 0.00 54 944.0
20210618181957 81 128 2.0 7.0 0.00 0.00 0.00 56 944.0
20210618181857 80 351 2.0 7.0 0.00 0.00 0.00 58 944.0
20210618181758 80 40 2.0 7.0 0.00 0.00 0.00 61 944.0
20210618181657 80 142 2.0 7.0 0.00 0.00 0.00 59 944.1
20210618181556 80 142 2.0 7.0 0.00 0.00 0.00 59 944.0
20210618181456 80 141 2.0 7.0 0.00 0.00 0.00 56 944.0
20210618181352 81 144 2.0 7.0 0.00 0.00 0.00 58 944.0
20210618181254 80 99 2.0 8.0 0.00 0.00 0.00 61 944.0
20210618181152 80 223 3.0 10.0 0.00 0.00 0.00 61 943.9
20210618181053 80 224 3.0 10.0 0.00 0.00 0.00 61 943.9
20210618180953 80 222 3.0 10.0 0.00 0.00 0.00 61 943.9
20210618180853 80 137 3.0 10.0 0.00 0.00 0.00 59 943.9
20210618180754 80 281 3.0 10.0 0.00 0.00 0.00 59 943.8
20210618180651 79 184 3.0 10.0 0.00 0.00 0.00 62 943.9
20210618180550 79 121 3.0 10.0 0.00 0.00 0.00 59 943.9
20210618180449 79 113 3.0 10.0 0.00 0.00 0.00 57 943.9
20210618180350 80 130 3.0 10.0 0.00 0.00 0.00 55 943.9
20210618180250 80 136 2.0 10.0 0.00 0.00 0.00 56 943.9
20210618180149 80 131 2.0 8.0 0.00 0.00 0.00 59 944.0
20210618180049 80 150 2.0 8.0 0.00 0.00 0.00 61 943.9
20210618175948 80 115 2.0 8.0 0.00 0.00 0.00 60 943.9
20210618175849 79 178 2.0 8.0 0.00 0.00 0.00 62 943.9
20210618175749 80 148 2.0 8.0 0.00 0.00 0.00 56 943.9
20210618175649 80 132 2.0 8.0 0.00 0.00 0.00 57 943.9
20210618175548 80 121 2.0 7.0 0.00 0.00 0.00 61 943.9
20210618175450 80 179 2.0 7.0 0.00 0.00 0.00 58 943.9
20210618175349 80 179 2.0 7.0 0.00 0.00 0.00 61 943.9
20210618175249 80 178 2.0 7.0 0.00 0.00 0.00 61 943.9
20210618175149 80 141 2.0 7.0 0.00 0.00 0.00 59 943.8
20210618175049 80 134 2.0 7.0 0.00 0.00 0.00 59 943.8
20210618174950 80 225 2.0 7.0 0.00 0.00 0.00 61 943.9
20210618174850 80 180 2.0 7.0 0.00 0.00 0.00 60 943.8
20210618174747 79 146 2.0 7.0 0.00 0.00 0.00 60 943.8
20210618174645 79 117 2.0 5.0 0.00 0.00 0.00 57 943.8
20210618174545 79 132 2.0 5.0 0.00 0.00 0.00 63 943.8
20210618174444 79 248 2.0 5.0 0.00 0.00 0.00 58 943.8
20210618174344 79 153 2.0 5.0 0.00 0.00 0.00 58 943.8
20210618174246 79 273 2.0 5.0 0.00 0.00 0.00 60 943.8
20210618174146 79 115 2.0 4.0 0.00 0.00 0.00 56 943.9
20210618174046 79 113 2.0 4.0 0.00 0.00 0.00 59 943.9
20210618173944 79 275 2.0 4.0 0.00 0.00 0.00 58 943.9
20210618173845 79 275 2.0 4.0 0.00 0.00 0.00 59 944.0
20210618173746 79 275 2.0 4.0 0.00 0.00 0.00 58 944.0
20210618173645 79 315 2.0 4.0 0.00 0.00 0.00 56 944.0
20210618173546 78 305 2.0 4.0 0.00 0.00 0.00 56 944.0
20210618173445 78 234 1.0 4.0 0.00 0.00 0.00 58 944.0
20210618173347 78 234 1.0 4.0 0.00 0.00 0.00 58 944.0
20210618173245 78 236 2.0 4.0 0.00 0.00 0.00 58 944.0
20210618173145 79 225 2.0 6.0 0.00 0.00 0.00 61 944.0
20210618173046 78 189 2.0 6.0 0.00 0.00 0.00 58 944.1
20210618172946 78 167 2.0 6.0 0.00 0.00 0.00 57 944.1
20210618172841 78 165 2.0 6.0 0.00 0.00 0.00 60 944.2
20210618172741 78 163 2.0 6.0 0.00 0.00 0.00 57 944.2
20210618172641 78 247 2.0 6.0 0.00 0.00 0.00 60 944.1
20210618172542 78 248 3.0 6.0 0.00 0.00 0.00 60 944.2
20210618172441 78 248 3.0 6.0 0.00 0.00 0.00 56 944.1
20210618172342 78 248 3.0 6.0 0.00 0.00 0.00 57 944.1
20210618172240 78 253 2.0 6.0 0.00 0.00 0.00 58 944.2
20210618172141 78 248 2.0 5.0 0.00 0.00 0.00 57 944.2
20210618172041 78 254 2.0 5.0 0.00 0.00 0.00 57 944.1
20210618171941 78 240 2.0 4.0 0.00 0.00 0.00 59 944.2
20210618171841 78 269 1.0 3.0 0.00 0.00 0.00 59 944.2
20210618171741 78 255 1.0 3.0 0.00 0.00 0.00 57 944.2
20210618171642 78 233 1.0 3.0 0.00 0.00 0.00 57 944.2
20210618171541 79 233 1.0 3.0 0.00 0.00 0.00 57 944.2
20210618171440 79 233 1.0 3.0 0.00 0.00 0.00 57 944.2
20210618171342 78 233 1.0 3.0 0.00 0.00 0.00 62 944.2
20210618171241 78 234 1.0 3.0 0.00 0.00 0.00 56 944.2
20210618171142 78 234 2.0 3.0 0.00 0.00 0.00 59 944.1
20210618171042 79 232 2.0 3.0 0.00 0.00 0.00 58 944.3
20210618170937 79 232 2.0 4.0 0.00 0.00 0.00 62 944.2
20210618170838 78 232 2.0 4.0 0.00 0.00 0.00 57 944.3
20210618170737 79 232 2.0 4.0 0.00 0.00 0.00 59 944.3
20210618170638 79 217 2.0 4.0 0.00 0.00 0.00 61 944.2
20210618170537 78 204 2.0 4.0 0.00 0.00 0.00 63 944.2
20210618170437 78 228 2.0 4.0 0.00 0.00 0.00 62 944.2
20210618170337 78 211 2.0 4.0 0.00 0.00 0.00 59 944.2
20210618170237 78 114 2.0 4.0 0.00 0.00 0.00 60 944.2
20210618170139 78 232 2.0 4.0 0.00 0.00 0.00 60 944.3
20210618170038 78 232 2.0 5.0 0.00 0.00 0.00 59 944.3
20210618165937 78 232 2.0 5.0 0.00 0.00 0.00 58 944.3
20210618165836 77 206 2.0 5.0 0.00 0.00 0.00 60 944.4
20210618165737 77 205 2.0 5.0 0.00 0.00 0.00 60 944.3
20210618165636 77 244 2.0 5.0 0.00 0.00 0.00 58 944.4
20210618165537 77 232 2.0 5.0 0.00 0.00 0.00 58 944.4
20210618165436 77 225 2.0 5.0 0.00 0.00 0.00 58 944.4
20210618165337 77 221 2.0 5.0 0.00 0.00 0.00 60 944.5
20210618165237 77 270 2.0 5.0 0.00 0.00 0.00 58 944.5
20210618165139 77 312 2.0 5.0 0.00 0.00 0.00 59 944.5
20210618165033 77 232 2.0 4.0 0.00 0.00 0.00 57 944.4
20210618164934 77 221 2.0 4.0 0.00 0.00 0.00 58 944.5
20210618164837 77 221 2.0 4.0 0.00 0.00 0.00 59 944.5
20210618164733 77 209 2.0 4.0 0.00 0.00 0.00 57 944.4
20210618164634 78 215 2.0 4.0 0.00 0.00 0.00 60 944.5
20210618164533 78 214 2.0 4.0 0.00 0.00 0.00 61 944.5
20210618164435 78 213 2.0 4.0 0.00 0.00 0.00 62 944.5
20210618164333 78 151 2.0 4.0 0.00 0.00 0.00 60 944.5
20210618164233 78 121 2.0 4.0 0.00 0.00 0.00 58 944.5
20210618164134 77 82 2.0 4.0 0.00 0.00 0.00 61 944.5
20210618164032 77 64 2.0 4.0 0.00 0.00 0.00 59 944.5
20210618163933 77 249 2.0 6.0 0.00 0.00 0.00 59 944.5
20210618163833 77 250 2.0 6.0 0.00 0.00 0.00 58 944.6
20210618163732 77 250 2.0 6.0 0.00 0.00 0.00 59 944.5
20210618163634 77 249 2.0 6.0 0.00 0.00 0.00 60 944.5
20210618163534 77 223 2.0 6.0 0.00 0.00 0.00 59 944.5
20210618163433 77 189 2.0 6.0 0.00 0.00 0.00 58 944.4
20210618163332 77 185 2.0 6.0 0.00 0.00 0.00 62 944.5
20210618163233 77 185 2.0 7.0 0.00 0.00 0.00 60 944.5
20210618163129 77 185 2.0 7.0 0.00 0.00 0.00 61 944.4
20210618163028 76 161 2.0 7.0 0.00 0.00 0.00 59 944.4
20210618162929 76 249 2.0 7.0 0.00 0.00 0.00 59 944.4
20210618162828 76 249 2.0 7.0 0.00 0.00 0.00 60 944.4
20210618162730 76 249 2.0 7.0 0.00 0.00 0.00 57 944.4
20210618162630 77 249 2.0 7.0 0.00 0.00 0.00 61 944.4
20210618162529 77 249 2.0 7.0 0.00 0.00 0.00 61 944.5
20210618162430 77 249 2.0 7.0 0.00 0.00 0.00 58 944.4
20210618162328 77 254 1.0 7.0 0.00 0.00 0.00 59 944.4
20210618162229 78 236 1.0 4.0 0.00 0.00 0.00 61 944.3
20210618162130 78 313 1.0 4.0 0.00 0.00 0.00 59 944.3
20210618162029 78 313 1.0 6.0 0.00 0.00 0.00 61 944.3
20210618161929 78 315 1.0 6.0 0.00 0.00 0.00 63 944.3
20210618161830 77 217 2.0 6.0 0.00 0.00 0.00 60 944.3
20210618161728 77 216 2.0 6.0 0.00 0.00 0.00 62 944.3
20210618161629 77 216 2.0 6.0 0.00 0.00 0.00 63 944.3
20210618161529 76 246 2.0 6.0 0.00 0.00 0.00 62 944.3
20210618161429 77 248 2.0 6.0 0.00 0.00 0.00 62 944.3
20210618161330 77 204 2.0 6.0 0.00 0.00 0.00 61 944.3
20210618161224 76 204 1.0 6.0 0.00 0.00 0.00 60 944.3
20210618161124 77 310 1.0 6.0 0.00 0.00 0.00 60 944.3
20210618161025 77 289 2.0 4.0 0.00 0.00 0.00 60 944.3
20210618160928 77 347 1.0 4.0 0.00 0.00 0.00 60 944.3
20210618160825 77 85 1.0 4.0 0.00 0.00 0.00 58 944.2
20210618160725 76 28 2.0 4.0 0.00 0.00 0.00 64 944.3
20210618160626 76 230 1.0 4.0 0.00 0.00 0.00 60 944.3
20210618160525 76 142 2.0 4.0 0.00 0.00 0.00 60 944.2
20210618160426 76 168 2.0 4.0 0.00 0.00 0.00 60 944.2
20210618160324 76 120 2.0 4.0 0.00 0.00 0.00 62 944.1
20210618160224 76 268 2.0 4.0 0.00 0.00 0.00 61 944.2
20210618160124 76 206 2.0 4.0 0.00 0.00 0.00 59 944.2
20210618160026 76 205 2.0 4.0 0.00 0.00 0.00 59 944.2
20210618155926 76 229 2.0 4.0 0.00 0.00 0.00 61 944.2
20210618155826 76 232 2.0 4.0 0.00 0.00 0.00 59 944.1
20210618155724 76 238 2.0 5.0 0.00 0.00 0.00 61 944.2
20210618155625 76 240 2.0 5.0 0.00 0.00 0.00 58 944.1
20210618155526 76 240 2.0 5.0 0.00 0.00 0.00 63 944.1
20210618155426 76 240 2.0 7.0 0.00 0.00 0.00 63 944.1
20210618155321 76 192 2.0 7.0 0.00 0.00 0.00 63 944.1
20210618155221 76 177 2.0 7.0 0.00 0.00 0.00 60 944.1
20210618155121 76 175 3.0 7.0 0.00 0.00 0.00 64 944.1
20210618155021 76 142 2.0 7.0 0.00 0.00 0.00 61 944.1
20210618154922 76 190 3.0 7.0 0.00 0.00 0.00 62 944.0
20210618154821 75 113 3.0 7.0 0.00 0.00 0.00 62 944.1
20210618154720 75 190 3.0 7.0 0.00 0.00 0.00 66 944.1
20210618154619 75 219 3.0 7.0 0.00 0.00 0.00 58 943.9
20210618154519 75 274 3.0 7.0 0.00 0.00 0.00 61 944.0
20210618154420 75 244 3.0 6.0 0.00 0.00 0.00 61 944.0
20210618154318 75 266 3.0 6.0 0.00 0.00 0.00 61 944.0
20210618154220 75 257 3.0 6.0 0.00 0.00 0.00 59 944.0
20210618154114 75 281 3.0 6.0 0.00 0.00 0.00 60 944.0
20210618154013 75 262 3.0 6.0 0.00 0.00 0.00 60 943.9
20210618153913 75 235 2.0 6.0 0.00 0.00 0.00 61 943.9
20210618153812 75 240 2.0 6.0 0.00 0.00 0.00 62 943.9
20210618153713 74 131 2.0 5.0 0.00 0.00 0.00 61 943.8
20210618153609 74 254 2.0 5.0 0.00 0.00 0.00 60 943.8
20210618153508 74 260 2.0 7.0 0.00 0.00 0.00 63 943.9
20210618153409 74 245 2.0 7.0 0.00 0.00 0.00 63 943.9
20210618153309 74 251 2.0 7.0 0.00 0.00 0.00 61 943.8
20210618153207 74 251 2.0 7.0 0.00 0.00 0.00 60 943.8
20210618153104 74 250 2.0 7.0 0.00 0.00 0.00 61 943.8
20210618153002 74 260 2.0 7.0 0.00 0.00 0.00 61 943.8
20210618152903 74 227 2.0 7.0 0.00 0.00 0.00 60 943.9
20210618152802 74 227 3.0 7.0 0.00 0.00 0.00 59 943.8
20210618152701 74 227 3.0 7.0 0.00 0.00 0.00 62 943.8
20210618152556 74 259 3.0 7.0 0.00 0.00 0.00 61 943.8
20210618152455 74 224 3.0 7.0 0.00 0.00 0.00 61 943.7
20210618152356 74 224 3.0 7.0 0.00 0.00 0.00 61 943.7
20210618152256 74 243 3.0 7.0 0.00 0.00 0.00 60 943.7
20210618152155 74 214 2.0 7.0 0.00 0.00 0.00 62 943.7
20210618152050 74 228 2.0 7.0 0.00 0.00 0.00 61 943.7
20210618151948 74 253 2.0 7.0 0.00 0.00 0.00 61 943.7
20210618151849 74 253 3.0 7.0 0.00 0.00 0.00 61 943.7
20210618151748 74 255 3.0 7.0 0.00 0.00 0.00 62 943.7
20210618151649 74 258 2.0 7.0 0.00 0.00 0.00 62 943.7
20210618151548 74 253 2.0 7.0 0.00 0.00 0.00 64 943.8
20210618151445 74 244 2.0 7.0 0.00 0.00 0.00 62 943.7
20210618151344 74 270 2.0 7.0 0.00 0.00 0.00 61 943.8
20210618151246 74 234 2.0 7.0 0.00 0.00 0.00 61 943.7
20210618151143 74 234 3.0 7.0 0.00 0.00 0.00 61 943.6
20210618151039 74 240 3.0 7.0 0.00 0.00 0.00 61 943.7
20210618150939 74 242 2.0 7.0 0.00 0.00 0.00 61 943.7
20210618150838 74 294 2.0 7.0 0.00 0.00 0.00 62 943.7
20210618150740 74 194 2.0 7.0 0.00 0.00 0.00 63 943.7
20210618150638 74 130 3.0 7.0 0.00 0.00 0.00 63 943.7
20210618150530 73 144 2.0 7.0 0.00 0.00 0.00 62 943.8
20210618150429 74 230 2.0 6.0 0.00 0.00 0.00 61 943.8
20210618150330 74 213 2.0 6.0 0.00 0.00 0.00 61 943.8
20210618150229 73 242 2.0 6.0 0.00 0.00 0.00 61 943.8
20210618150129 74 248 2.0 6.0 0.00 0.00 0.00 60 943.8
20210618150024 74 142 2.0 6.0 0.00 0.00 0.00 62 943.8
20210618145922 74 225 2.0 6.0 0.00 0.00 0.00 63 943.9
20210618145823 74 177 2.0 6.0 0.00 0.00 0.00 66 943.9
20210618145725 73 115 2.0 6.0 0.00 0.00 0.00 61 943.9
20210618145622 73 231 2.0 4.0 0.00 0.00 0.00 61 943.9
20210618145516 73 231 2.0 5.0 0.00 0.00 0.00 61 943.9
20210618145418 73 231 2.0 5.0 0.00 0.00 0.00 61 943.9
20210618145316 73 229 2.0 5.0 0.00 0.00 0.00 60 943.9
20210618145218 73 232 2.0 5.0 0.00 0.00 0.00 59 943.9
20210618145116 73 178 2.0 5.0 0.00 0.00 0.00 58 943.9
20210618145012 74 193 2.0 5.0 0.00 0.00 0.00 62 943.8
20210618144913 74 192 2.0 5.0 0.00 0.00 0.00 60 943.8
20210618144809 74 232 2.0 5.0 0.00 0.00 0.00 61 943.8
20210618144710 74 208 2.0 5.0 0.00 0.00 0.00 63 943.8
20210618144607 74 160 2.0 4.0 0.00 0.00 0.00 58 943.8
20210618144501 74 148 1.0 3.0 0.00 0.00 0.00 60 943.8
20210618144403 73 95 1.0 3.0 0.00 0.00 0.00 60 943.9
20210618144302 73 210 2.0 3.0 0.00 0.00 0.00 60 943.8
20210618144200 73 210 1.0 3.0 0.00 0.00 0.00 61 943.9
20210618144100 73 201 2.0 3.0 0.00 0.00 0.00 60 944.0
20210618143956 73 180 2.0 4.0 0.00 0.00 0.00 59 944.1
20210618143856 73 179 2.0 4.0 0.00 0.00 0.00 61 944.1
20210618143754 73 144 2.0 4.0 0.00 0.00 0.00 61 944.1
20210618143656 73 249 2.0 4.0 0.00 0.00 0.00 59 944.0
20210618143552 73 170 1.0 4.0 0.00 0.00 0.00 60 944.0
20210618143446 73 85 2.0 4.0 0.00 0.00 0.00 58 944.0
20210618143346 73 40 2.0 4.0 0.00 0.00 0.00 61 944.0
20210618143247 73 40 2.0 4.0 0.00 0.00 0.00 60 944.0
20210618143147 73 240 2.0 4.0 0.00 0.00 0.00 58 944.0
20210618143045 73 263 2.0 4.0 0.00 0.00 0.00 58 944.1
20210618142941 73 239 2.0 4.0 0.00 0.00 0.00 60 944.1
20210618142842 73 245 2.0 8.0 0.00 0.00 0.00 58 944.0
20210618142740 73 59 2.0 8.0 0.00 0.00 0.00 61 944.1
20210618142640 72 57 2.0 8.0 0.00 0.00 0.00 60 944.1
20210618142537 72 219 2.0 8.0 0.00 0.00 0.00 58 944.1
20210618142433 72 219 2.0 8.0 0.00 0.00 0.00 58 944.1
20210618142332 72 248 2.0 8.0 0.00 0.00 0.00 58 944.2
20210618142232 72 227 2.0 8.0 0.00 0.00 0.00 58 944.2
20210618142131 72 211 2.0 8.0 0.00 0.00 0.00 59 944.1
20210618142029 72 209 2.0 8.0 0.00 0.00 0.00 58 944.1
20210618141922 72 178 2.0 8.0 0.00 0.00 0.00 58 944.0
20210618141823 72 255 2.0 3.0 0.00 0.00 0.00 59 944.1
20210618141724 72 252 2.0 3.0 0.00 0.00 0.00 57 944.1
20210618141622 72 204 2.0 3.0 0.00 0.00 0.00 57 944.1
20210618141523 72 146 2.0 4.0 0.00 0.00 0.00 58 944.1
20210618141422 72 242 2.0 4.0 0.00 0.00 0.00 57 944.2
20210618141320 72 248 2.0 4.0 0.00 0.00 0.00 58 944.2
20210618141221 72 240 2.0 6.0 0.00 0.00 0.00 60 944.1
20210618141120 72 240 2.0 6.0 0.00 0.00 0.00 57 944.1
20210618141017 72 238 2.0 6.0 0.00 0.00 0.00 57 944.2
20210618140912 71 251 2.0 6.0 0.00 0.00 0.00 57 944.1
20210618140811 71 252 2.0 6.0 0.00 0.00 0.00 57 944.1
20210618140710 72 223 2.0 6.0 0.00 0.00 0.00 57 944.1
20210618140610 72 196 2.0 6.0 0.00 0.00 0.00 58 944.1
20210618140511 72 220 2.0 6.0 0.00 0.00 0.00 55 944.0
20210618140407 71 220 2.0 6.0 0.00 0.00 0.00 60 944.1
20210618140306 71 217 2.0 4.0 0.00 0.00 0.00 59 944.1
20210618140205 71 234 2.0 4.0 0.00 0.00 0.00 57 944.0
20210618140105 71 234 2.0 4.0 0.00 0.00 0.00 59 944.0
20210618140006 71 274 2.0 4.0 0.00 0.00 0.00 56 944.0
20210618135902 71 263 2.0 4.0 0.00 0.00 0.00 56 944.0
20210618135758 71 261 2.0 4.0 0.00 0.00 0.00 57 944.0
20210618135700 71 261 2.0 4.0 0.00 0.00 0.00 57 944.0
20210618135558 71 237 2.0 4.0 0.00 0.00 0.00 56 943.9
20210618135459 71 197 2.0 4.0 0.00 0.00 0.00 59 944.0
20210618135358 71 229 2.0 6.0 0.00 0.00 0.00 58 944.1
20210618135256 71 229 2.0 6.0 0.00 0.00 0.00 57 944.0
20210618135155 71 224 2.0 6.0 0.00 0.00 0.00 56 944.0
20210618135054 71 248 2.0 6.0 0.00 0.00 0.00 56 944.0
20210618134953 71 246 2.0 6.0 0.00 0.00 0.00 56 944.1
20210618134851 71 246 3.0 6.0 0.00 0.00 0.00 54 944.1
20210618134749 71 250 3.0 6.0 0.00 0.00 0.00 56 944.1
20210618134648 71 240 3.0 6.0 0.00 0.00 0.00 55 944.1
20210618134546 71 236 3.0 6.0 0.00 0.00 0.00 56 944.1
20210618134446 71 218 3.0 6.0 0.00 0.00 0.00 55 944.1
20210618134340 71 252 3.0 5.0 0.00 0.00 0.00 57 944.1
20210618134241 71 258 3.0 5.0 0.00 0.00 0.00 56 944.2
20210618134141 71 260 3.0 5.0 0.00 0.00 0.00 57 944.1
20210618134040 71 290 3.0 5.0 0.00 0.00 0.00 57 944.0
20210618133940 71 231 3.0 5.0 0.00 0.00 0.00 56 944.0
20210618133835 71 232 3.0 5.0 0.00 0.00 0.00 56 944.0
20210618133734 71 231 2.0 5.0 0.00 0.00 0.00 56 944.0
20210618133635 71 202 2.0 4.0 0.00 0.00 0.00 54 944.1
20210618133534 71 233 2.0 4.0 0.00 0.00 0.00 57 944.1
20210618133434 71 211 2.0 6.0 0.00 0.00 0.00 56 944.1
20210618133330 71 215 3.0 6.0 0.00 0.00 0.00 54 944.1
20210618133230 70 244 3.0 6.0 0.00 0.00 0.00 56 944.1
20210618133130 70 239 3.0 6.0 0.00 0.00 0.00 54 944.2
20210618133028 71 239 3.0 6.0 0.00 0.00 0.00 55 944.2
20210618132929 70 235 3.0 6.0 0.00 0.00 0.00 56 944.3
20210618132824 70 234 3.0 6.0 0.00 0.00 0.00 56 944.3
20210618132724 70 232 3.0 6.0 0.00 0.00 0.00 54 944.3
20210618132622 70 231 3.0 6.0 0.00 0.00 0.00 54 944.2
20210618132524 70 233 3.0 6.0 0.00 0.00 0.00 55 944.3
20210618132424 70 227 3.0 5.0 0.00 0.00 0.00 58 944.2
20210618132318 70 215 2.0 5.0 0.00 0.00 0.00 54 944.2
20210618132217 70 239 2.0 5.0 0.00 0.00 0.00 53 944.2
20210618132118 70 221 2.0 4.0 0.00 0.00 0.00 54 944.2
20210618132018 70 221 2.0 4.0 0.00 0.00 0.00 54 944.2
20210618131915 70 221 2.0 4.0 0.00 0.00 0.00 54 944.1
20210618131808 70 217 2.0 4.0 0.00 0.00 0.00 53 944.0
20210618131710 70 217 2.0 4.0 0.00 0.00 0.00 57 944.1
20210618131609 70 227 3.0 4.0 0.00 0.00 0.00 53 944.1
20210618131509 70 228 3.0 4.0 0.00 0.00 0.00 53 944.1
20210618131409 70 227 3.0 6.0 0.00 0.00 0.00 54 944.0
20210618131304 70 221 3.0 6.0 0.00 0.00 0.00 54 944.1
20210618131202 70 238 2.0 6.0 0.00 0.00 0.00 55 944.1
20210618131103 70 244 2.0 6.0 0.00 0.00 0.00 54 944.0
20210618131004 70 227 2.0 6.0 0.00 0.00 0.00 54 944.1
20210618130903 70 227 2.0 6.0 0.00 0.00 0.00 55 944.0
20210618130800 70 221 2.0 6.0 0.00 0.00 0.00 54 944.1
20210618130656 70 106 2.0 6.0 0.00 0.00 0.00 54 944.0
20210618130557 70 250 2.0 6.0 0.00 0.00 0.00 55 944.1
20210618130457 70 271 2.0 5.0 0.00 0.00 0.00 54 944.1
20210618130357 70 169 2.0 4.0 0.00 0.00 0.00 56 944.1
20210618130250 70 213 2.0 3.0 0.00 0.00 0.00 54 944.1
20210618130151 70 209 2.0 3.0 0.00 0.00 0.00 55 944.1
20210618130050 70 209 2.0 4.0 0.00 0.00 0.00 55 944.1
20210618125951 70 240 2.0 4.0 0.00 0.00 0.00 54 944.1
20210618125852 70 330 2.0 4.0 0.00 0.00 0.00 54 944.1
20210618125750 70 224 2.0 4.0 0.00 0.00 0.00 55 944.0
20210618125650 70 224 2.0 4.0 0.00 0.00 0.00 54 944.0
20210618125547 70 123 2.0 4.0 0.00 0.00 0.00 54 943.9
20210618125446 70 207 2.0 4.0 0.00 0.00 0.00 54 943.9
20210618125345 70 205 2.0 4.0 0.00 0.00 0.00 52 943.8
20210618125239 70 202 2.0 4.0 0.00 0.00 0.00 54 943.8
20210618125139 70 221 1.0 4.0 0.00 0.00 0.00 53 943.8
20210618125040 70 223 1.0 4.0 0.00 0.00 0.00 56 943.8
20210618124938 70 223 2.0 4.0 0.00 0.00 0.00 55 943.8
20210618124840 70 113 2.0 3.0 0.00 0.00 0.00 57 943.9
20210618124733 70 213 2.0 3.0 0.00 0.00 0.00 55 943.9
20210618124634 70 209 2.0 3.0 0.00 0.00 0.00 54 943.9
20210618124533 70 210 2.0 3.0 0.00 0.00 0.00 55 944.0
20210618124433 70 175 2.0 3.0 0.00 0.00 0.00 53 944.0
20210618124333 70 207 2.0 3.0 0.00 0.00 0.00 54 944.0
20210618124231 70 238 2.0 3.0 0.00 0.00 0.00 54 944.1
20210618124129 69 239 2.0 3.0 0.00 0.00 0.00 52 944.1
20210618124027 69 239 2.0 4.0 0.00 0.00 0.00 54 944.0
20210618123926 69 241 2.0 4.0 0.00 0.00 0.00 52 944.1
20210618123827 69 242 2.0 4.0 0.00 0.00 0.00 52 944.1
20210618123722 69 195 2.0 4.0 0.00 0.00 0.00 52 944.1
20210618123621 69 22 2.0 4.0 0.00 0.00 0.00 53 944.0
20210618123522 69 227 2.0 4.0 0.00 0.00 0.00 54 944.0
20210618123420 69 231 2.0 4.0 0.00 0.00 0.00 51 944.0
20210618123321 69 220 2.0 4.0 0.00 0.00 0.00 51 944.0
20210618123216 69 220 2.0 4.0 0.00 0.00 0.00 52 944.0
20210618123116 69 220 2.0 3.0 0.00 0.00 0.00 51 944.0
20210618123015 69 220 2.0 3.0 0.00 0.00 0.00 53 943.9
20210618122915 69 220 2.0 3.0 0.00 0.00 0.00 52 943.9
20210618122815 69 217 2.0 3.0 0.00 0.00 0.00 53 944.0
20210618122709 69 225 2.0 3.0 0.00 0.00 0.00 51 944.0
20210618122608 69 225 2.0 3.0 0.00 0.00 0.00 52 943.9
20210618122509 69 223 2.0 3.0 0.00 0.00 0.00 51 944.0
20210618122408 69 223 2.0 3.0 0.00 0.00 0.00 50 944.1
20210618122309 69 223 2.0 3.0 0.00 0.00 0.00 51 943.9
20210618122206 69 219 2.0 3.0 0.00 0.00 0.00 52 944.0
20210618122107 69 221 2.0 3.0 0.00 0.00 0.00 53 944.0
20210618122007 69 221 2.0 3.0 0.00 0.00 0.00 51 944.1
20210618121905 69 221 2.0 3.0 0.00 0.00 0.00 53 944.1
20210618121803 69 336 2.0 3.0 0.00 0.00 0.00 51 944.2
20210618121701 68 223 1.0 3.0 0.00 0.00 0.00 51 944.2
20210618121557 68 223 1.0 3.0 0.00 0.00 0.00 50 944.1
20210618121458 68 227 1.0 3.0 0.00 0.00 0.00 51 944.2
20210618121357 68 227 1.0 3.0 0.00 0.00 0.00 51 944.2
20210618121256 68 226 1.0 3.0 0.00 0.00 0.00 51 944.1
20210618121151 68 226 1.0 3.0 0.00 0.00 0.00 51 944.1
20210618121051 68 226 1.0 3.0 0.00 0.00 0.00 51 944.1
20210618120951 68 226 2.0 3.0 0.00 0.00 0.00 52 944.1
20210618120851 68 226 2.0 3.0 0.00 0.00 0.00 52 944.1
20210618120751 68 226 2.0 3.0 0.00 0.00 0.00 52 944.2
20210618120646 68 226 2.0 3.0 0.00 0.00 0.00 51 944.2
20210618120546 68 226 2.0 3.0 0.00 0.00 0.00 52 944.2
20210618120447 68 226 2.0 3.0 0.00 0.00 0.00 51 944.2
20210618120347 68 226 2.0 3.0 0.00 0.00 0.00 51 944.2
20210618120245 68 226 2.0 3.0 0.00 0.00 0.00 50 944.2
20210618120138 68 226 2.0 3.0 0.00 0.00 0.00 49 944.1
20210618120039 68 226 2.0 3.0 0.00 0.00 0.00 50 944.1
20210618115939 68 226 2.0 3.0 0.00 0.00 0.00 51 944.1
20210618115839 68 226 2.0 3.0 0.00 0.00 0.00 50 944.1
20210618115739 68 226 2.0 3.0 0.00 0.00 0.00 50 943.9
20210618115633 68 226 2.0 3.0 0.00 0.00 0.00 50 943.9
20210618115532 68 226 2.0 3.0 0.00 0.00 0.00 51 943.9
20210618115432 68 226 2.0 3.0 0.00 0.00 0.00 51 943.9
20210618115333 67 226 2.0 3.0 0.00 0.00 0.00 51 943.9
20210618115234 67 226 2.0 3.0 0.00 0.00 0.00 52 943.9
20210618115129 67 226 2.0 3.0 0.00 0.00 0.00 52 943.8
20210618115026 67 226 2.0 3.0 0.00 0.00 0.00 52 943.9
20210618114927 67 226 2.0 3.0 0.00 0.00 0.00 52 943.9
20210618114827 67 226 2.0 3.0 0.00 0.00 0.00 51 943.9
20210618114728 67 226 2.0 3.0 0.00 0.00 0.00 52 943.9
20210618114622 67 226 2.0 3.0 0.00 0.00 0.00 51 943.8
20210618114521 67 226 2.0 3.0 0.00 0.00 0.00 54 943.9
20210618114421 67 225 2.0 3.0 0.00 0.00 0.00 53 943.9
20210618114320 67 225 2.0 3.0 0.00 0.00 0.00 53 943.8
20210618114222 67 225 2.0 3.0 0.00 0.00 0.00 52 943.8
20210618114120 67 225 2.0 3.0 0.00 0.00 0.00 51 943.8
20210618114018 67 225 2.0 3.0 0.00 0.00 0.00 52 943.9
20210618113916 67 225 2.0 3.0 0.00 0.00 0.00 52 943.8
20210618113816 67 225 2.0 3.0 0.00 0.00 0.00 53 943.8
20210618113715 67 225 2.0 3.0 0.00 0.00 0.00 52 943.8
20210618113608 67 225 2.0 3.0 0.00 0.00 0.00 53 943.8
20210618113510 67 225 2.0 3.0 0.00 0.00 0.00 53 943.7
20210618113408 67 225 2.0 3.0 0.00 0.00 0.00 53 943.8
20210618113308 67 225 2.0 3.0 0.00 0.00 0.00 54 943.7
20210618113210 67 225 2.0 3.0 0.00 0.00 0.00 53 943.8
20210618113102 67 225 2.0 3.0 0.00 0.00 0.00 54 943.7
20210618113005 67 225 2.0 3.0 0.00 0.00 0.00 53 943.8
20210618112902 67 225 2.0 3.0 0.00 0.00 0.00 53 943.7
20210618112802 67 225 2.0 3.0 0.00 0.00 0.00 54 943.7
20210618112703 66 225 2.0 3.0 0.00 0.00 0.00 54 943.7
20210618112559 67 225 2.0 3.0 0.00 0.00 0.00 54 943.7
20210618112459 67 225 2.0 3.0 0.00 0.00 0.00 55 943.7
20210618112400 67 225 2.0 3.0 0.00 0.00 0.00 54 943.6
20210618112300 67 225 2.0 3.0 0.00 0.00 0.00 54 943.7
20210618112158 67 225 2.0 3.0 0.00 0.00 0.00 53 943.7
20210618112056 67 225 2.0 3.0 0.00 0.00 0.00 54 943.8
20210618111955 67 225 2.0 3.0 0.00 0.00 0.00 54 943.7
20210618111854 67 225 2.0 3.0 0.00 0.00 0.00 54 943.8
20210618111753 67 225 2.0 3.0 0.00 0.00 0.00 54 943.8
20210618111651 67 225 2.0 3.0 0.00 0.00 0.00 54 943.8
20210618111544 67 225 2.0 3.0 0.00 0.00 0.00 53 943.8
20210618111445 66 225 2.0 3.0 0.00 0.00 0.00 53 943.8
20210618111346 66 225 2.0 3.0 0.00 0.00 0.00 53 943.8
20210618111244 66 225 2.0 3.0 0.00 0.00 0.00 53 943.9
20210618111144 66 225 2.0 3.0 0.00 0.00 0.00 54 943.8
20210618111040 66 225 2.0 3.0 0.00 0.00 0.00 54 943.8
20210618110940 66 225 2.0 3.0 0.00 0.00 0.00 53 943.9
20210618110840 66 225 2.0 2.0 0.00 0.00 0.00 54 944.0
20210618110741 66 225 2.0 2.0 0.00 0.00 0.00 53 943.9
20210618110638 66 225 2.0 2.0 0.00 0.00 0.00 54 943.9
20210618110535 66 225 2.0 3.0 0.00 0.00 0.00 54 943.9
20210618110433 66 225 2.0 3.0 0.00 0.00 0.00 53 943.9
20210618110332 67 225 2.0 3.0 0.00 0.00 0.00 54 943.9
20210618110233 67 225 2.0 3.0 0.00 0.00 0.00 52 944.0
20210618110133 67 225 2.0 3.0 0.00 0.00 0.00 52 944.0
20210618110026 66 225 2.0 3.0 0.00 0.00 0.00 52 944.0
20210618105926 66 225 2.0 3.0 0.00 0.00 0.00 52 944.1
20210618105825 66 225 2.0 3.0 0.00 0.00 0.00 52 944.0
20210618105726 67 225 2.0 3.0 0.00 0.00 0.00 52 944.1
20210618105626 67 225 2.0 3.0 0.00 0.00 0.00 52 944.0
20210618105528 67 225 2.0 3.0 0.00 0.00 0.00 52 944.1
20210618105424 67 225 2.0 3.0 0.00 0.00 0.00 52 944.0
20210618105324 67 225 2.0 3.0 0.00 0.00 0.00 51 944.1
20210618105223 67 225 2.0 3.0 0.00 0.00 0.00 51 944.1
20210618105120 67 225 2.0 3.0 0.00 0.00 0.00 50 944.1
20210618105014 67 225 2.0 3.0 0.00 0.00 0.00 50 944.1
20210618104914 67 225 2.0 3.0 0.00 0.00 0.00 51 944.0
20210618104814 67 225 2.0 3.0 0.00 0.00 0.00 50 944.1
20210618104715 67 225 2.0 3.0 0.00 0.00 0.00 51 944.0
20210618104615 67 225 2.0 4.0 0.00 0.00 0.00 49 944.0
20210618104508 67 225 2.0 4.0 0.00 0.00 0.00 50 944.1
20210618104409 67 225 2.0 4.0 0.00 0.00 0.00 49 944.0
20210618104309 67 225 2.0 4.0 0.00 0.00 0.00 48 944.0
20210618104210 67 225 2.0 4.0 0.00 0.00 0.00 50 944.1
20210618104110 67 225 2.0 4.0 0.00 0.00 0.00 48 944.1
20210618104008 67 225 2.0 4.0 0.00 0.00 0.00 49 943.9
20210618103906 67 225 2.0 4.0 0.00 0.00 0.00 49 944.1
20210618103806 67 225 2.0 4.0 0.00 0.00 0.00 48 944.1
20210618103705 67 225 2.0 4.0 0.00 0.00 0.00 49 944.0
20210618103603 67 225 2.0 3.0 0.00 0.00 0.00 49 944.0
20210618103501 67 225 2.0 3.0 0.00 0.00 0.00 49 944.0
20210618103400 67 224 2.0 3.0 0.00 0.00 0.00 50 943.9
20210618103301 67 224 2.0 3.0 0.00 0.00 0.00 49 944.0
20210618103158 67 223 2.0 3.0 0.00 0.00 0.00 50 943.9
20210618103057 67 223 2.0 3.0 0.00 0.00 0.00 49 943.9
20210618102950 67 223 2.0 3.0 0.00 0.00 0.00 50 943.9
20210618102851 67 223 2.0 3.0 0.00 0.00 0.00 50 944.0
20210618102751 67 223 2.0 3.0 0.00 0.00 0.00 49 943.8
20210618102650 67 223 2.0 3.0 0.00 0.00 0.00 49 943.8
20210618102555 67 223 2.0 3.0 0.00 0.00 0.00 49 943.9
20210618102450 67 223 2.0 3.0 0.00 0.00 0.00 49 943.8
20210618102349 67 223 2.0 3.0 0.00 0.00 0.00 50 943.8
20210618102246 67 223 2.0 3.0 0.00 0.00 0.00 50 943.8
20210618102147 67 223 2.0 3.0 0.00 0.00 0.00 50 943.8
20210618102045 67 223 2.0 3.0 0.00 0.00 0.00 50 943.9
20210618101940 67 223 2.0 3.0 0.00 0.00 0.00 50 943.8
20210618101841 67 223 2.0 3.0 0.00 0.00 0.00 49 943.9
20210618101740 67 223 2.0 3.0 0.00 0.00 0.00 50 943.9
20210618101640 67 223 2.0 3.0 0.00 0.00 0.00 49 943.8
20210618101539 67 223 2.0 3.0 0.00 0.00 0.00 50 943.9
20210618101432 67 223 2.0 3.0 0.00 0.00 0.00 50 943.9
20210618101333 67 223 2.0 3.0 0.00 0.00 0.00 50 943.9
20210618101232 67 223 2.0 3.0 0.00 0.00 0.00 50 943.9
20210618101133 66 223 2.0 3.0 0.00 0.00 0.00 50 944.0
20210618101033 66 223 2.0 3.0 0.00 0.00 0.00 50 944.0
20210618100933 66 223 2.0 3.0 0.00 0.00 0.00 50 944.0
20210618100830 66 223 2.0 3.0 0.00 0.00 0.00 50 943.9
20210618100730 66 223 2.0 3.0 0.00 0.00 0.00 51 943.9
20210618100630 66 223 2.0 3.0 0.00 0.00 0.00 50 944.0
20210618100526 66 223 2.0 3.0 0.00 0.00 0.00 50 944.0
20210618100427 66 223 2.0 2.0 0.00 0.00 0.00 50 944.0
20210618100324 66 223 2.0 2.0 0.00 0.00 0.00 50 944.0
20210618100226 66 223 2.0 2.0 0.00 0.00 0.00 51 943.9
20210618100122 66 223 1.0 2.0 0.00 0.00 0.00 51 944.0
20210618100021 66 223 1.0 2.0 0.00 0.00 0.00 51 944.0
20210618095916 66 223 1.0 2.0 0.00 0.00 0.00 51 944.0
20210618095815 66 223 1.0 2.0 0.00 0.00 0.00 51 944.0
20210618095715 66 223 1.0 2.0 0.00 0.00 0.00 50 943.9
20210618095615 66 223 1.0 2.0 0.00 0.00 0.00 51 943.9
20210618095514 66 223 1.0 2.0 0.00 0.00 0.00 50 943.9
20210618095414 66 223 1.0 2.0 0.00 0.00 0.00 51 943.9
20210618095312 66 223 1.0 2.0 0.00 0.00 0.00 50 943.9
20210618095212 66 223 1.0 2.0 0.00 0.00 0.00 50 943.9
20210618095112 66 223 1.0 2.0 0.00 0.00 0.00 51 943.9
20210618095009 66 223 2.0 2.0 0.00 0.00 0.00 50 943.9
20210618094905 66 223 2.0 2.0 0.00 0.00 0.00 50 943.9
20210618094808 66 223 2.0 2.0 0.00 0.00 0.00 50 943.9
20210618094706 66 223 2.0 2.0 0.00 0.00 0.00 50 943.9
20210618094605 66 223 2.0 2.0 0.00 0.00 0.00 50 943.9
20210618094503 67 223 2.0 3.0 0.00 0.00 0.00 50 943.8
20210618094356 67 223 2.0 3.0 0.00 0.00 0.00 50 943.8
20210618094256 67 223 2.0 3.0 0.00 0.00 0.00 50 943.9
20210618094156 67 223 2.0 3.0 0.00 0.00 0.00 49 943.8
20210618094058 67 223 2.0 3.0 0.00 0.00 0.00 50 943.8
20210618093958 67 223 2.0 3.0 0.00 0.00 0.00 50 943.8
20210618093854 67 223 2.0 3.0 0.00 0.00 0.00 50 943.8
20210618093750 67 223 2.0 3.0 0.00 0.00 0.00 51 943.8
20210618093650 67 223 2.0 3.0 0.00 0.00 0.00 50 943.8
20210618093551 67 223 2.0 3.0 0.00 0.00 0.00 50 943.7
20210618093451 67 223 2.0 3.0 0.00 0.00 0.00 52 943.8
20210618093345 67 223 2.0 3.0 0.00 0.00 0.00 51 943.8
20210618093245 67 223 2.0 3.0 0.00 0.00 0.00 51 943.7
20210618093145 67 223 2.0 3.0 0.00 0.00 0.00 50 943.8
20210618093045 67 223 2.0 3.0 0.00 0.00 0.00 50 943.7
20210618092945 67 223 2.0 3.0 0.00 0.00 0.00 51 943.7
20210618092838 67 223 2.0 3.0 0.00 0.00 0.00 50 943.7
20210618092740 67 223 2.0 3.0 0.00 0.00 0.00 50 943.7
20210618092639 67 223 2.0 3.0 0.00 0.00 0.00 50 943.7
20210618092538 67 223 2.0 3.0 0.00 0.00 0.00 50 943.7
20210618092441 67 223 2.0 3.0 0.00 0.00 0.00 50 943.8
20210618092334 67 223 2.0 3.0 0.00 0.00 0.00 50 943.7
20210618092232 67 223 2.0 3.0 0.00 0.00 0.00 51 943.8
20210618092133 67 223 2.0 3.0 0.00 0.00 0.00 51 943.7
20210618092032 67 223 2.0 3.0 0.00 0.00 0.00 50 943.7
20210618091933 67 223 2.0 3.0 0.00 0.00 0.00 51 943.7
20210618091833 67 223 2.0 3.0 0.00 0.00 0.00 51 943.6
20210618091730 67 223 2.0 3.0 0.00 0.00 0.00 51 943.6
20210618091631 67 223 2.0 3.0 0.00 0.00 0.00 51 943.6
20210618091529 67 223 2.0 3.0 0.00 0.00 0.00 51 943.7
20210618091429 67 223 2.0 3.0 0.00 0.00 0.00 51 943.6
20210618091320 67 223 2.0 3.0 0.00 0.00 0.00 51 943.5
20210618091221 67 223 2.0 2.0 0.00 0.00 0.00 51 943.6
20210618091121 67 223 2.0 2.0 0.00 0.00 0.00 51 943.4
20210618091020 67 223 2.0 3.0 0.00 0.00 0.00 51 943.5
20210618090921 67 223 2.0 3.0 0.00 0.00 0.00 51 943.5
20210618090816 67 223 2.0 3.0 0.00 0.00 0.00 51 943.6
20210618090715 67 223 2.0 3.0 0.00 0.00 0.00 51 943.5
20210618090614 67 223 2.0 3.0 0.00 0.00 0.00 51 943.4
20210618090516 67 223 2.0 3.0 0.00 0.00 0.00 52 943.5
20210618090415 67 223 2.0 3.0 0.00 0.00 0.00 51 943.6
20210618090316 67 223 2.0 3.0 0.00 0.00 0.00 51 943.5
20210618090213 67 223 2.0 3.0 0.00 0.00 0.00 52 943.5
20210618090113 67 223 2.0 3.0 0.00 0.00 0.00 51 943.5
20210618090010 67 223 2.0 3.0 0.00 0.00 0.00 51 943.5
20210618085909 67 223 2.0 3.0 0.00 0.00 0.00 51 943.6
20210618085802 67 223 2.0 3.0 0.00 0.00 0.00 51 943.5
20210618085702 67 223 2.0 3.0 0.00 0.00 0.00 51 943.5
20210618085601 67 223 2.0 3.0 0.00 0.00 0.00 51 943.5
20210618085501 67 223 2.0 3.0 0.00 0.00 0.00 51 943.5
20210618085404 67 223 2.0 3.0 0.00 0.00 0.00 51 943.5
20210618085301 67 223 2.0 3.0 0.00 0.00 0.00 51 943.5
20210618085200 67 223 2.0 3.0 0.00 0.00 0.00 52 943.6
20210618085102 67 223 2.0 3.0 0.00 0.00 0.00 52 943.6
20210618084958 67 223 2.0 3.0 0.00 0.00 0.00 52 943.6
20210618084857 67 223 2.0 3.0 0.00 0.00 0.00 52 943.5
20210618084754 67 223 2.0 3.0 0.00 0.00 0.00 52 943.6
20210618084650 67 223 2.0 3.0 0.00 0.00 0.00 51 943.6
20210618084550 66 223 2.0 3.0 0.00 0.00 0.00 52 943.5
20210618084449 66 223 2.0 3.0 0.00 0.00 0.00 51 943.5
20210618084351 66 223 2.0 3.0 0.00 0.00 0.00 51 943.5
20210618084244 66 223 2.0 3.0 0.00 0.00 0.00 52 943.6
20210618084146 66 223 2.0 3.0 0.00 0.00 0.00 51 943.5
20210618084044 66 223 2.0 3.0 0.00 0.00 0.00 51 943.5
20210618083944 66 223 2.0 3.0 0.00 0.00 0.00 51 943.5
20210618083847 66 223 2.0 3.0 0.00 0.00 0.00 51 943.5
20210618083738 66 223 2.0 3.0 0.00 0.00 0.00 51 943.5
20210618083640 66 223 2.0 3.0 0.00 0.00 0.00 51 943.4
20210618083538 66 223 2.0 3.0 0.00 0.00 0.00 50 943.4
20210618083438 66 223 2.0 3.0 0.00 0.00 0.00 51 943.4
20210618083339 66 223 2.0 3.0 0.00 0.00 0.00 51 943.5
20210618083234 66 223 2.0 3.0 0.00 0.00 0.00 51 943.5
20210618083132 66 223 2.0 3.0 0.00 0.00 0.00 52 943.4
20210618083031 66 223 2.0 3.0 0.00 0.00 0.00 51 943.5
20210618082933 66 223 2.0 3.0 0.00 0.00 0.00 51 943.5
20210618082833 66 223 2.0 2.0 0.00 0.00 0.00 51 943.5
20210618082726 66 223 2.0 3.0 0.00 0.00 0.00 50 943.4
20210618082627 66 223 2.0 3.0 0.00 0.00 0.00 50 943.4
20210618082526 66 223 2.0 3.0 0.00 0.00 0.00 50 943.5
20210618082426 66 223 2.0 3.0 0.00 0.00 0.00 50 943.5
20210618082327 66 223 2.0 3.0 0.00 0.00 0.00 50 943.5
20210618082226 66 223 2.0 3.0 0.00 0.00 0.00 50 943.4
20210618082126 66 223 2.0 3.0 0.00 0.00 0.00 50 943.5
20210618082024 66 223 2.0 3.0 0.00 0.00 0.00 50 943.4
20210618081923 66 223 2.0 3.0 0.00 0.00 0.00 49 943.4
20210618081821 66 223 2.0 3.0 0.00 0.00 0.00 49 943.4
20210618081721 66 223 2.0 3.0 0.00 0.00 0.00 50 943.4
20210618081619 66 223 2.0 3.0 0.00 0.00 0.00 50 943.5
20210618081519 66 223 2.0 3.0 0.00 0.00 0.00 50 943.3
20210618081417 66 223 2.0 3.0 0.00 0.00 0.00 50 943.4
20210618081315 66 223 2.0 3.0 0.00 0.00 0.00 50 943.4
20210618081208 66 223 2.0 3.0 0.00 0.00 0.00 51 943.4
20210618081109 66 223 2.0 3.0 0.00 0.00 0.00 50 943.5
20210618081008 66 223 2.0 3.0 0.00 0.00 0.00 50 943.5
20210618080908 66 223 2.0 3.0 0.00 0.00 0.00 50 943.4
20210618080809 66 223 2.0 3.0 0.00 0.00 0.00 50 943.5
20210618080709 66 223 2.0 3.0 0.00 0.00 0.00 50 943.5
20210618080606 66 223 2.0 3.0 0.00 0.00 0.00 50 943.4
20210618080507 66 223 2.0 3.0 0.00 0.00 0.00 51 943.4
20210618080404 66 223 2.0 3.0 0.00 0.00 0.00 51 943.4
20210618080303 65 223 2.0 3.0 0.00 0.00 0.00 52 943.4
20210618080158 65 223 2.0 3.0 0.00 0.00 0.00 51 943.5
20210618080056 65 223 2.0 3.0 0.00 0.00 0.00 52 943.5
20210618075957 65 223 2.0 3.0 0.00 0.00 0.00 52 943.5
20210618075858 65 223 2.0 3.0 0.00 0.00 0.00 52 943.4
20210618075755 65 223 2.0 3.0 0.00 0.00 0.00 53 943.4
20210618075653 65 223 2.0 3.0 0.00 0.00 0.00 53 943.4
20210618075552 65 223 2.0 3.0 0.00 0.00 0.00 53 943.4
20210618075452 65 223 2.0 3.0 0.00 0.00 0.00 52 943.4
20210618075351 65 223 2.0 3.0 0.00 0.00 0.00 52 943.4
20210618075250 65 223 2.0 2.0 0.00 0.00 0.00 52 943.3
20210618075147 65 223 2.0 2.0 0.00 0.00 0.00 54 943.3
20210618075047 65 223 2.0 2.0 0.00 0.00 0.00 54 943.4
20210618074946 65 223 2.0 2.0 0.00 0.00 0.00 54 943.4
20210618074845 65 223 2.0 2.0 0.00 0.00 0.00 53 943.4
20210618074745 66 223 2.0 2.0 0.00 0.00 0.00 54 943.4
20210618074635 66 223 2.0 2.0 0.00 0.00 0.00 52 943.4
20210618074536 66 223 2.0 2.0 0.00 0.00 0.00 53 943.4
20210618074437 66 223 2.0 2.0 0.00 0.00 0.00 51 943.4
20210618074337 66 223 2.0 2.0 0.00 0.00 0.00 51 943.4
20210618074240 66 223 2.0 2.0 0.00 0.00 0.00 51 943.5
20210618074135 66 223 2.0 2.0 0.00 0.00 0.00 50 943.4
20210618074034 66 223 2.0 2.0 0.00 0.00 0.00 51 943.5
20210618073936 66 223 2.0 2.0 0.00 0.00 0.00 51 943.5
20210618073833 66 223 2.0 2.0 0.00 0.00 0.00 51 943.6
20210618073730 66 223 2.0 2.0 0.00 0.00 0.00 50 943.5
20210618073627 66 223 2.0 2.0 0.00 0.00 0.00 51 943.6
20210618073524 66 223 2.0 2.0 0.00 0.00 0.00 50 943.7
20210618073424 66 223 2.0 3.0 0.00 0.00 0.00 51 943.7
20210618073325 66 223 2.0 3.0 0.00 0.00 0.00 51 943.6
20210618073224 66 223 2.0 3.0 0.00 0.00 0.00 51 943.7
20210618073118 66 223 2.0 3.0 0.00 0.00 0.00 51 943.6
20210618073018 66 223 2.0 3.0 0.00 0.00 0.00 51 943.6
20210618072918 66 223 2.0 3.0 0.00 0.00 0.00 51 943.6
20210618072819 66 223 2.0 3.0 0.00 0.00 0.00 51 943.6
20210618072718 66 223 2.0 3.0 0.00 0.00 0.00 51 943.6
20210618072618 66 223 2.0 3.0 0.00 0.00 0.00 51 943.7
20210618072518 66 223 1.0 3.0 0.00 0.00 0.00 51 943.7
20210618072418 66 223 1.0 2.0 0.00 0.00 0.00 52 943.7
20210618072317 66 223 1.0 2.0 0.00 0.00 0.00 50 943.5
20210618072217 66 223 1.0 2.0 0.00 0.00 0.00 52 943.5
20210618072117 66 223 1.0 2.0 0.00 0.00 0.00 51 943.5
20210618072017 66 223 1.0 2.0 0.00 0.00 0.00 51 943.5
20210618071916 66 223 1.0 2.0 0.00 0.00 0.00 51 943.6
20210618071817 66 223 1.0 2.0 0.00 0.00 0.00 52 943.5
20210618071716 66 223 1.0 2.0 0.00 0.00 0.00 52 943.5
20210618071616 66 223 1.0 2.0 0.00 0.00 0.00 52 943.5
20210618071516 66 223 1.0 2.0 0.00 0.00 0.00 52 943.5
20210618071417 66 223 1.0 2.0 0.00 0.00 0.00 52 943.6
20210618071316 66 223 1.0 2.0 0.00 0.00 0.00 52 943.5
20210618071215 66 223 1.0 2.0 0.00 0.00 0.00 52 943.5
20210618071115 66 223 1.0 2.0 0.00 0.00 0.00 51 943.5
20210618071016 66 223 1.0 2.0 0.00 0.00 0.00 52 943.5
20210618070916 66 223 1.0 2.0 0.00 0.00 0.00 51 943.5
20210618070817 66 223 1.0 2.0 0.00 0.00 0.00 52 943.5
20210618070712 66 223 1.0 2.0 0.00 0.00 0.00 50 943.6
20210618070611 66 223 1.0 2.0 0.00 0.00 0.00 51 943.5
20210618070512 66 223 1.0 2.0 0.00 0.00 0.00 51 943.5
20210618070413 66 223 1.0 2.0 0.00 0.00 0.00 50 943.6
20210618070313 66 223 1.0 2.0 0.00 0.00 0.00 51 943.5
20210618070213 66 223 1.0 2.0 0.00 0.00 0.00 51 943.5
20210618070113 66 223 1.0 2.0 0.00 0.00 0.00 50 943.5
20210618070012 66 223 1.0 2.0 0.00 0.00 0.00 50 943.5
20210618065915 66 223 1.0 2.0 0.00 0.00 0.00 53 943.4
20210618065813 66 223 1.0 2.0 0.00 0.00 0.00 52 943.5
20210618065712 66 223 1.0 2.0 0.00 0.00 0.00 50 943.4
20210618065612 66 223 1.0 2.0 0.00 0.00 0.00 50 943.4
20210618065513 66 223 1.0 2.0 0.00 0.00 0.00 51 943.5
20210618065412 66 223 1.0 2.0 0.00 0.00 0.00 52 943.4
20210618065312 66 223 2.0 2.0 0.00 0.00 0.00 51 943.5
20210618065212 66 223 1.0 2.0 0.00 0.00 0.00 51 943.5
20210618065112 66 223 1.0 2.0 0.00 0.00 0.00 51 943.5
20210618065012 66 223 2.0 2.0 0.00 0.00 0.00 51 943.6
20210618064913 66 223 2.0 2.0 0.00 0.00 0.00 51 943.6
20210618064808 66 223 2.0 2.0 0.00 0.00 0.00 51 943.6
20210618064709 66 223 2.0 2.0 0.00 0.00 0.00 51 943.5
20210618064608 66 223 2.0 3.0 0.00 0.00 0.00 50 943.6
20210618064508 66 223 2.0 3.0 0.00 0.00 0.00 51 943.6
20210618064408 66 223 2.0 3.0 0.00 0.00 0.00 51 943.6
20210618064309 66 223 2.0 3.0 0.00 0.00 0.00 51 943.7
20210618064209 66 223 2.0 3.0 0.00 0.00 0.00 50 943.7
20210618064108 67 223 2.0 3.0 0.00 0.00 0.00 51 943.6
20210618064009 67 223 2.0 3.0 0.00 0.00 0.00 50 943.6
20210618063909 67 223 2.0 3.0 0.00 0.00 0.00 50 943.7
20210618063809 67 223 2.0 3.0 0.00 0.00 0.00 50 943.6
20210618063708 67 223 2.0 3.0 0.00 0.00 0.00 50 943.7
20210618063608 67 223 2.0 3.0 0.00 0.00 0.00 49 943.7
20210618063508 67 223 2.0 3.0 0.00 0.00 0.00 50 943.8
20210618063408 67 223 2.0 3.0 0.00 0.00 0.00 49 943.8
20210618063307 67 223 2.0 3.0 0.00 0.00 0.00 49 943.8
20210618063207 67 223 2.0 3.0 0.00 0.00 0.00 49 943.8
20210618063108 67 223 2.0 3.0 0.00 0.00 0.00 49 943.8
20210618063009 67 223 2.0 3.0 0.00 0.00 0.00 49 943.8
20210618062904 67 223 2.0 3.0 0.00 0.00 0.00 49 944.0
20210618062804 67 223 2.0 3.0 0.00 0.00 0.00 49 943.8
20210618062704 67 223 2.0 3.0 0.00 0.00 0.00 49 943.9
20210618062603 67 223 2.0 3.0 0.00 0.00 0.00 50 943.9
20210618062505 67 223 2.0 3.0 0.00 0.00 0.00 50 943.9
20210618062405 66 223 2.0 3.0 0.00 0.00 0.00 51 943.9
20210618062306 66 223 2.0 3.0 0.00 0.00 0.00 51 943.9
20210618062204 66 223 2.0 3.0 0.00 0.00 0.00 51 943.9
20210618062104 66 223 2.0 3.0 0.00 0.00 0.00 51 943.9
20210618062004 67 223 2.0 3.0 0.00 0.00 0.00 51 943.9
20210618061905 67 223 2.0 3.0 0.00 0.00 0.00 51 943.9
20210618061803 67 223 2.0 3.0 0.00 0.00 0.00 51 943.9
20210618061705 66 223 2.0 3.0 0.00 0.00 0.00 51 943.9
20210618061604 66 223 2.0 3.0 0.00 0.00 0.00 51 943.8
20210618061504 67 223 2.0 3.0 0.00 0.00 0.00 51 943.9
20210618061404 66 223 2.0 3.0 0.00 0.00 0.00 51 943.9
20210618061305 66 223 2.0 3.0 0.00 0.00 0.00 52 943.9
20210618061203 66 223 2.0 3.0 0.00 0.00 0.00 51 943.9
20210618061105 66 223 2.0 3.0 0.00 0.00 0.00 52 943.9
20210618061001 66 223 2.0 3.0 0.00 0.00 0.00 52 944.0
20210618060901 66 223 2.0 3.0 0.00 0.00 0.00 53 943.9
20210618060759 66 223 2.0 3.0 0.00 0.00 0.00 52 943.9
20210618060700 66 223 2.0 3.0 0.00 0.00 0.00 52 944.0
20210618060559 67 223 2.0 3.0 0.00 0.00 0.00 52 944.0
20210618060456 67 223 2.0 3.0 0.00 0.00 0.00 52 944.0
20210618060357 67 223 2.0 3.0 0.00 0.00 0.00 52 944.0
20210618060255 67 223 2.0 3.0 0.00 0.00 0.00 51 944.0
20210618060155 67 223 2.0 3.0 0.00 0.00 0.00 51 944.1
20210618060055 67 223 2.0 3.0 0.00 0.00 0.00 51 944.0
20210618055956 67 223 2.0 3.0 0.00 0.00 0.00 50 944.1
20210618055856 67 223 2.0 3.0 0.00 0.00 0.00 50 944.1
20210618055756 67 223 2.0 3.0 0.00 0.00 0.00 50 944.1
20210618055657 67 223 2.0 3.0 0.00 0.00 0.00 50 944.1
20210618055556 67 223 2.0 3.0 0.00 0.00 0.00 49 944.2
20210618055457 67 223 2.0 3.0 0.00 0.00 0.00 50 944.0
20210618055356 67 223 2.0 3.0 0.00 0.00 0.00 49 944.1
20210618055256 67 223 2.0 3.0 0.00 0.00 0.00 49 944.1
20210618055156 67 223 2.0 3.0 0.00 0.00 0.00 49 944.2
20210618055054 67 223 2.0 3.0 0.00 0.00 0.00 50 944.1
20210618054953 67 223 2.0 3.0 0.00 0.00 0.00 50 944.2
20210618054854 67 223 2.0 3.0 0.00 0.00 0.00 50 944.1
20210618054752 67 223 2.0 3.0 0.00 0.00 0.00 50 944.1
20210618054653 67 222 2.0 3.0 0.00 0.00 0.00 50 944.1
20210618054554 67 222 2.0 2.0 0.00 0.00 0.00 50 944.1
20210618054452 67 222 2.0 2.0 0.00 0.00 0.00 50 944.2
20210618054352 67 222 2.0 2.0 0.00 0.00 0.00 51 944.2
20210618054252 67 222 2.0 2.0 0.00 0.00 0.00 50 944.2
20210618054151 67 222 2.0 2.0 0.00 0.00 0.00 52 944.2
20210618054053 67 222 2.0 2.0 0.00 0.00 0.00 51 944.2
20210618053951 66 222 2.0 2.0 0.00 0.00 0.00 51 944.2
20210618053853 66 222 2.0 2.0 0.00 0.00 0.00 52 944.2
20210618053751 66 222 2.0 2.0 0.00 0.00 0.00 53 944.2
20210618053651 66 222 2.0 2.0 0.00 0.00 0.00 52 944.1
20210618053552 66 222 2.0 2.0 0.00 0.00 0.00 53 944.1
20210618053452 66 222 2.0 2.0 0.00 0.00 0.00 53 944.1
20210618053352 67 222 2.0 2.0 0.00 0.00 0.00 53 944.1
20210618053253 67 222 2.0 2.0 0.00 0.00 0.00 52 944.1
20210618053148 67 222 2.0 3.0 0.00 0.00 0.00 53 944.2
20210618053048 67 222 2.0 3.0 0.00 0.00 0.00 52 944.1
20210618052947 67 222 2.0 3.0 0.00 0.00 0.00 52 944.2
20210618052847 67 222 2.0 3.0 0.00 0.00 0.00 51 944.2
20210618052749 67 222 2.0 3.0 0.00 0.00 0.00 52 944.2
20210618052648 67 222 2.0 3.0 0.00 0.00 0.00 52 944.3
20210618052547 66 222 2.0 3.0 0.00 0.00 0.00 52 944.2
20210618052450 66 222 2.0 3.0 0.00 0.00 0.00 52 944.3
20210618052348 66 222 2.0 3.0 0.00 0.00 0.00 52 944.2
20210618052248 66 222 2.0 3.0 0.00 0.00 0.00 53 944.2
20210618052148 66 222 2.0 3.0 0.00 0.00 0.00 53 944.3
20210618052047 66 222 2.0 3.0 0.00 0.00 0.00 53 944.1
20210618051948 66 222 2.0 3.0 0.00 0.00 0.00 53 944.2
20210618051848 67 222 2.0 3.0 0.00 0.00 0.00 53 944.1
20210618051749 67 222 2.0 3.0 0.00 0.00 0.00 53 944.1
20210618051647 67 222 2.0 3.0 0.00 0.00 0.00 53 944.1
20210618051547 67 222 2.0 3.0 0.00 0.00 0.00 53 944.1
20210618051447 67 222 2.0 3.0 0.00 0.00 0.00 53 944.2
20210618051350 67 222 2.0 3.0 0.00 0.00 0.00 52 944.1
20210618051243 66 222 2.0 3.0 0.00 0.00 0.00 52 944.1
20210618051145 66 222 2.0 3.0 0.00 0.00 0.00 52 944.1
20210618051043 66 222 2.0 3.0 0.00 0.00 0.00 53 944.1
20210618050946 66 222 2.0 3.0 0.00 0.00 0.00 53 944.1
20210618050845 66 222 2.0 3.0 0.00 0.00 0.00 53 944.1
20210618050743 67 222 2.0 3.0 0.00 0.00 0.00 53 944.1
20210618050645 67 222 2.0 3.0 0.00 0.00 0.00 54 944.2
20210618050544 67 222 2.0 3.0 0.00 0.00 0.00 54 944.1
20210618050444 67 222 2.0 3.0 0.00 0.00 0.00 52 944.1
20210618050345 67 222 2.0 3.0 0.00 0.00 0.00 53 944.1
20210618050243 67 222 2.0 3.0 0.00 0.00 0.00 52 944.1
20210618050141 67 222 2.0 3.0 0.00 0.00 0.00 51 944.1
20210618050035 67 222 2.0 3.0 0.00 0.00 0.00 53 944.1
20210618045937 67 223 2.0 3.0 0.00 0.00 0.00 53 944.1
20210618045836 67 223 2.0 3.0 0.00 0.00 0.00 53 944.0
20210618045735 67 223 2.0 3.0 0.00 0.00 0.00 52 944.1
20210618045635 67 223 2.0 3.0 0.00 0.00 0.00 51 944.0
20210618045531 67 223 2.0 3.0 0.00 0.00 0.00 52 944.1
20210618045430 67 223 2.0 3.0 0.00 0.00 0.00 52 944.1
20210618045331 67 223 2.0 3.0 0.00 0.00 0.00 52 944.1
20210618045229 67 223 2.0 3.0 0.00 0.00 0.00 52 944.1
20210618045130 67 223 2.0 3.0 0.00 0.00 0.00 54 944.0
20210618045031 67 223 2.0 3.0 0.00 0.00 0.00 53 944.0
20210618044928 67 223 2.0 3.0 0.00 0.00 0.00 53 944.1
20210618044827 67 223 2.0 3.0 0.00 0.00 0.00 53 944.0
20210618044727 67 223 2.0 3.0 0.00 0.00 0.00 53 944.1
20210618044624 67 223 2.0 3.0 0.00 0.00 0.00 53 944.1
20210618044521 67 223 2.0 3.0 0.00 0.00 0.00 53 944.0
20210618044418 67 223 2.0 3.0 0.00 0.00 0.00 53 944.1
20210618044319 67 223 2.0 3.0 0.00 0.00 0.00 53 944.0
20210618044218 67 223 2.0 3.0 0.00 0.00 0.00 53 944.1
20210618044118 67 223 2.0 3.0 0.00 0.00 0.00 53 944.0
20210618044018 67 223 2.0 3.0 0.00 0.00 0.00 54 944.1
20210618043916 67 223 2.0 3.0 0.00 0.00 0.00 54 944.0
20210618043815 67 223 2.0 3.0 0.00 0.00 0.00 55 944.1
20210618043715 67 223 2.0 3.0 0.00 0.00 0.00 55 944.0
20210618043612 66 223 2.0 3.0 0.00 0.00 0.00 55 944.1
20210618043506 66 223 2.0 3.0 0.00 0.00 0.00 55 944.1
20210618043405 66 223 2.0 3.0 0.00 0.00 0.00 55 944.0
20210618043304 66 223 2.0 3.0 0.00 0.00 0.00 55 944.0
20210618043203 66 223 2.0 3.0 0.00 0.00 0.00 55 944.0
20210618043104 66 223 2.0 3.0 0.00 0.00 0.00 56 944.0
20210618043006 66 223 2.0 4.0 0.00 0.00 0.00 56 944.1
20210618042902 66 223 3.0 4.0 0.00 0.00 0.00 57 944.0
20210618042803 65 222 3.0 4.0 0.00 0.00 0.00 58 944.0
20210618042701 65 222 3.0 4.0 0.00 0.00 0.00 57 944.0
20210618042559 65 222 3.0 4.0 0.00 0.00 0.00 58 944.1
20210618042500 65 220 3.0 4.0 0.00 0.00 0.00 58 944.0
20210618042357 65 220 2.0 4.0 0.00 0.00 0.00 59 944.0
20210618042300 65 219 2.0 4.0 0.00 0.00 0.00 60 944.0
20210618042157 65 219 2.0 4.0 0.00 0.00 0.00 59 944.0
20210618042057 65 219 2.0 4.0 0.00 0.00 0.00 61 944.1
20210618041954 65 219 2.0 3.0 0.00 0.00 0.00 60 944.1
20210618041854 65 219 2.0 3.0 0.00 0.00 0.00 61 944.0
20210618041753 66 218 2.0 3.0 0.00 0.00 0.00 61 944.0
20210618041654 66 217 2.0 3.0 0.00 0.00 0.00 58 944.0
20210618041553 66 215 2.0 3.0 0.00 0.00 0.00 58 943.9
20210618041453 66 215 2.0 3.0 0.00 0.00 0.00 58 943.9
20210618041348 66 215 2.0 3.0 0.00 0.00 0.00 57 943.8
20210618041247 66 215 2.0 3.0 0.00 0.00 0.00 57 943.9
20210618041147 66 215 2.0 3.0 0.00 0.00 0.00 58 943.9
20210618041047 66 215 2.0 3.0 0.00 0.00 0.00 57 943.8
20210618040947 66 215 2.0 3.0 0.00 0.00 0.00 56 943.9
20210618040848 66 215 2.0 3.0 0.00 0.00 0.00 57 943.9
20210618040747 66 215 2.0 3.0 0.00 0.00 0.00 56 943.9
20210618040645 66 215 2.0 3.0 0.00 0.00 0.00 57 943.8
20210618040547 66 215 2.0 3.0 0.00 0.00 0.00 57 943.8
20210618040446 66 215 2.0 3.0 0.00 0.00 0.00 56 943.8
20210618040346 66 215 2.0 3.0 0.00 0.00 0.00 57 943.8
20210618040241 66 215 2.0 3.0 0.00 0.00 0.00 57 943.8
20210618040140 66 215 2.0 3.0 0.00 0.00 0.00 57 943.9
20210618040037 66 215 2.0 3.0 0.00 0.00 0.00 57 943.9
20210618035939 66 215 2.0 3.0 0.00 0.00 0.00 56 943.8
20210618035838 66 215 2.0 3.0 0.00 0.00 0.00 56 943.9
20210618035738 66 215 2.0 3.0 0.00 0.00 0.00 56 943.9
20210618035640 66 215 2.0 3.0 0.00 0.00 0.00 56 943.9
20210618035535 66 215 2.0 3.0 0.00 0.00 0.00 56 943.9
20210618035435 66 215 2.0 3.0 0.00 0.00 0.00 57 943.9
20210618035333 66 215 2.0 3.0 0.00 0.00 0.00 58 943.9
20210618035234 66 215 1.0 3.0 0.00 0.00 0.00 57 943.9
20210618035133 66 215 1.0 3.0 0.00 0.00 0.00 57 943.9
20210618035035 67 215 1.0 3.0 0.00 0.00 0.00 57 943.9
20210618034934 67 215 1.0 3.0 0.00 0.00 0.00 58 943.9
20210618034834 67 234 1.0 3.0 0.00 0.00 0.00 58 943.9
20210618034734 67 234 1.0 3.0 0.00 0.00 0.00 56 943.8
20210618034633 67 234 1.0 2.0 0.00 0.00 0.00 55 943.9
20210618034534 67 234 1.0 2.0 0.00 0.00 0.00 55 943.9
20210618034434 67 234 1.0 2.0 0.00 0.00 0.00 55 943.9
20210618034334 67 234 1.0 2.0 0.00 0.00 0.00 55 943.9
20210618034233 67 234 1.0 2.0 0.00 0.00 0.00 55 943.9
20210618034135 67 234 1.0 2.0 0.00 0.00 0.00 55 944.0
20210618034034 67 234 1.0 2.0 0.00 0.00 0.00 56 943.9
20210618033934 67 234 1.0 2.0 0.00 0.00 0.00 56 943.9
20210618033834 67 234 1.0 2.0 0.00 0.00 0.00 56 944.0
20210618033736 67 234 1.0 2.0 0.00 0.00 0.00 56 944.0
20210618033631 67 234 1.0 3.0 0.00 0.00 0.00 57 943.9
20210618033529 67 234 2.0 3.0 0.00 0.00 0.00 57 944.0
20210618033429 67 234 2.0 3.0 0.00 0.00 0.00 56 943.9
20210618033330 67 234 2.0 3.0 0.00 0.00 0.00 58 944.0
20210618033231 67 234 2.0 3.0 0.00 0.00 0.00 57 943.9
20210618033131 67 234 2.0 3.0 0.00 0.00 0.00 56 943.9
20210618033031 67 234 2.0 3.0 0.00 0.00 0.00 56 943.9
20210618032930 67 234 2.0 3.0 0.00 0.00 0.00 56 943.9
20210618032831 67 234 2.0 3.0 0.00 0.00 0.00 57 944.0
20210618032731 67 234 2.0 3.0 0.00 0.00 0.00 55 943.9
20210618032629 67 187 2.0 3.0 0.00 0.00 0.00 56 943.8
20210618032529 67 206 2.0 3.0 0.00 0.00 0.00 56 943.8
20210618032431 67 206 2.0 3.0 0.00 0.00 0.00 55 943.7
20210618032330 67 206 2.0 3.0 0.00 0.00 0.00 54 943.8
20210618032230 67 206 2.0 3.0 0.00 0.00 0.00 55 943.8
20210618032130 67 206 2.0 3.0 0.00 0.00 0.00 55 943.8
20210618032029 67 206 2.0 3.0 0.00 0.00 0.00 56 943.8
20210618031930 67 206 2.0 3.0 0.00 0.00 0.00 55 943.8
20210618031831 67 205 2.0 4.0 0.00 0.00 0.00 56 943.7
20210618031725 67 205 2.0 4.0 0.00 0.00 0.00 55 943.7
20210618031625 67 205 2.0 4.0 0.00 0.00 0.00 56 943.7
20210618031526 67 205 2.0 4.0 0.00 0.00 0.00 56 943.7
20210618031425 67 205 2.0 4.0 0.00 0.00 0.00 55 943.6
20210618031328 67 205 2.0 4.0 0.00 0.00 0.00 56 943.6
20210618031226 67 208 2.0 4.0 0.00 0.00 0.00 56 943.6
20210618031126 67 161 2.0 4.0 0.00 0.00 0.00 57 943.6
20210618031025 67 161 2.0 4.0 0.00 0.00 0.00 57 943.7
20210618030927 67 162 2.0 3.0 0.00 0.00 0.00 57 943.6
20210618030825 66 196 2.0 3.0 0.00 0.00 0.00 57 943.5
20210618030725 66 196 2.0 3.0 0.00 0.00 0.00 57 943.5
20210618030626 66 196 2.0 3.0 0.00 0.00 0.00 58 943.5
20210618030527 66 196 2.0 3.0 0.00 0.00 0.00 58 943.6
20210618030426 66 196 2.0 3.0 0.00 0.00 0.00 58 943.6
20210618030327 66 196 2.0 3.0 0.00 0.00 0.00 56 943.6
20210618030226 66 201 2.0 3.0 0.00 0.00 0.00 59 943.5
20210618030126 67 201 1.0 3.0 0.00 0.00 0.00 57 943.6
20210618030026 67 201 1.0 3.0 0.00 0.00 0.00 57 943.5
20210618025927 67 202 1.0 3.0 0.00 0.00 0.00 56 943.6
20210618025823 67 202 1.0 3.0 0.00 0.00 0.00 56 943.6
20210618025722 67 202 1.0 3.0 0.00 0.00 0.00 56 943.5
20210618025621 67 202 1.0 2.0 0.00 0.00 0.00 56 943.6
20210618025521 68 202 1.0 2.0 0.00 0.00 0.00 55 943.5
20210618025423 68 202 1.0 2.0 0.00 0.00 0.00 53 943.5
20210618025322 68 202 1.0 2.0 0.00 0.00 0.00 53 943.5
20210618025223 68 202 1.0 2.0 0.00 0.00 0.00 53 943.5
20210618025122 68 202 1.0 2.0 0.00 0.00 0.00 53 943.5
20210618025022 68 202 1.0 2.0 0.00 0.00 0.00 54 943.4
20210618024922 68 202 1.0 2.0 0.00 0.00 0.00 53 943.4
20210618024821 68 201 1.0 2.0 0.00 0.00 0.00 53 943.4
20210618024722 68 201 1.0 2.0 0.00 0.00 0.00 54 943.4
20210618024622 67 204 1.0 2.0 0.00 0.00 0.00 54 943.4
20210618024522 67 204 1.0 2.0 0.00 0.00 0.00 54 943.5
20210618024423 67 204 1.0 2.0 0.00 0.00 0.00 55 943.5
20210618024322 67 204 1.0 2.0 0.00 0.00 0.00 55 943.5
20210618024221 67 206 1.0 2.0 0.00 0.00 0.00 56 943.5
20210618024122 67 206 1.0 2.0 0.00 0.00 0.00 55 943.5
20210618024023 67 206 1.0 2.0 0.00 0.00 0.00 55 943.5
20210618023918 67 206 1.0 2.0 0.00 0.00 0.00 55 943.5
20210618023818 67 207 1.0 2.0 0.00 0.00 0.00 58 943.5
20210618023718 67 207 1.0 2.0 0.00 0.00 0.00 56 943.5
20210618023617 67 168 1.0 2.0 0.00 0.00 0.00 57 943.5
20210618023519 67 168 1.0 2.0 0.00 0.00 0.00 56 943.5
20210618023418 67 168 1.0 2.0 0.00 0.00 0.00 56 943.5
20210618023319 67 168 1.0 2.0 0.00 0.00 0.00 55 943.4
20210618023218 67 168 1.0 2.0 0.00 0.00 0.00 56 943.5
20210618023119 67 168 1.0 2.0 0.00 0.00 0.00 55 943.4
20210618023020 67 165 1.0 2.0 0.00 0.00 0.00 55 943.5
20210618022918 67 165 1.0 2.0 0.00 0.00 0.00 55 943.5
20210618022817 67 165 1.0 2.0 0.00 0.00 0.00 56 943.4
20210618022719 67 165 1.0 2.0 0.00 0.00 0.00 55 943.4
20210618022617 67 165 1.0 2.0 0.00 0.00 0.00 56 943.5
20210618022518 67 165 1.0 2.0 0.00 0.00 0.00 58 943.5
20210618022417 67 165 1.0 2.0 0.00 0.00 0.00 58 943.4
20210618022319 67 165 1.0 2.0 0.00 0.00 0.00 58 943.5
20210618022219 67 165 1.0 2.0 0.00 0.00 0.00 60 943.4
20210618022119 67 165 1.0 2.0 0.00 0.00 0.00 57 943.4
20210618022018 67 165 1.0 2.0 0.00 0.00 0.00 58 943.4
20210618021916 67 165 1.0 2.0 0.00 0.00 0.00 57 943.4
20210618021816 67 165 1.0 2.0 0.00 0.00 0.00 59 943.4
20210618021715 68 154 1.0 2.0 0.00 0.00 0.00 58 943.3
20210618021611 68 154 1.0 2.0 0.00 0.00 0.00 58 943.4
20210618021507 68 154 1.0 2.0 0.00 0.00 0.00 60 943.4
20210618021406 68 154 1.0 2.0 0.00 0.00 0.00 59 943.4
20210618021306 68 154 1.0 2.0 0.00 0.00 0.00 57 943.3
20210618021205 68 154 1.0 2.0 0.00 0.00 0.00 55 943.4
20210618021102 68 147 1.0 2.0 0.00 0.00 0.00 55 943.2
20210618021000 68 147 1.0 2.0 0.00 0.00 0.00 54 943.2
20210618020900 68 147 1.0 2.0 0.00 0.00 0.00 54 943.2
20210618020759 68 147 1.0 2.0 0.00 0.00 0.00 55 943.3
20210618020658 68 147 1.0 2.0 0.00 0.00 0.00 55 943.3
20210618020556 68 147 1.0 2.0 0.00 0.00 0.00 55 943.3
20210618020449 68 147 1.0 2.0 0.00 0.00 0.00 55 943.2
20210618020351 68 147 1.0 2.0 0.00 0.00 0.00 55 943.3
20210618020249 68 147 1.0 2.0 0.00 0.00 0.00 56 943.2
20210618020150 68 146 1.0 2.0 0.00 0.00 0.00 56 943.2
20210618020050 68 146 1.0 2.0 0.00 0.00 0.00 55 943.2
20210618015950 68 146 1.0 2.0 0.00 0.00 0.00 56 943.1
20210618015847 68 146 1.0 2.0 0.00 0.00 0.00 55 943.6
20210618015747 68 146 1.0 2.0 0.00 0.00 0.00 56 943.1
20210618015647 68 146 1.0 2.0 0.00 0.00 0.00 57 943.1
20210618015545 68 146 1.0 2.0 0.00 0.00 0.00 57 943.1
20210618015439 68 146 1.0 2.0 0.00 0.00 0.00 56 943.0
20210618015338 68 159 1.0 2.0 0.00 0.00 0.00 55 943.0
20210618015239 68 143 1.0 2.0 0.00 0.00 0.00 55 943.1
20210618015138 68 142 1.0 2.0 0.00 0.00 0.00 54 943.0
20210618015038 68 140 1.0 2.0 0.00 0.00 0.00 55 943.1
20210618014931 68 140 1.0 2.0 0.00 0.00 0.00 54 943.0
20210618014832 68 189 1.0 2.0 0.00 0.00 0.00 56 943.1
20210618014732 68 189 1.0 2.0 0.00 0.00 0.00 55 943.1
20210618014632 68 189 1.0 2.0 0.00 0.00 0.00 55 943.1
20210618014532 68 189 1.0 2.0 0.00 0.00 0.00 55 943.0
20210618014427 68 189 1.0 2.0 0.00 0.00 0.00 56 943.0
20210618014325 68 189 1.0 2.0 0.00 0.00 0.00 55 943.0
20210618014226 68 189 1.0 2.0 0.00 0.00 0.00 56 943.0
20210618014125 68 189 1.0 2.0 0.00 0.00 0.00 56 942.9
20210618014026 68 189 1.0 2.0 0.00 0.00 0.00 56 943.0
20210618013923 68 189 1.0 2.0 0.00 0.00 0.00 59 942.9
20210618013824 68 189 1.0 2.0 0.00 0.00 0.00 60 942.9
20210618013723 68 189 1.0 3.0 0.00 0.00 0.00 59 942.8
20210618013623 68 189 1.0 3.0 0.00 0.00 0.00 58 942.8
20210618013519 68 222 1.0 3.0 0.00 0.00 0.00 56 942.8
20210618013415 68 222 1.0 3.0 0.00 0.00 0.00 56 942.7
20210618013316 68 222 1.0 3.0 0.00 0.00 0.00 54 942.7
20210618013214 68 222 1.0 3.0 0.00 0.00 0.00 55 942.7
20210618013113 68 222 1.0 3.0 0.00 0.00 0.00 54 942.7
20210618013014 68 222 1.0 3.0 0.00 0.00 0.00 55 942.7
20210618012915 68 222 1.0 3.0 0.00 0.00 0.00 55 942.7
20210618012814 68 224 1.0 3.0 0.00 0.00 0.00 55 942.7
20210618012715 68 132 1.0 3.0 0.00 0.00 0.00 55 942.7
20210618012613 68 177 1.0 2.0 0.00 0.00 0.00 56 942.8
20210618012515 68 177 1.0 2.0 0.00 0.00 0.00 58 942.8
20210618012411 68 183 1.0 2.0 0.00 0.00 0.00 55 942.7
20210618012313 68 169 1.0 2.0 0.00 0.00 0.00 54 942.7
20210618012210 68 169 1.0 2.0 0.00 0.00 0.00 55 942.7
20210618012109 68 169 1.0 2.0 0.00 0.00 0.00 56 942.7
20210618012009 68 169 1.0 2.0 0.00 0.00 0.00 55 942.8
20210618011908 68 169 1.0 2.0 0.00 0.00 0.00 56 942.7
20210618011806 68 183 1.0 2.0 0.00 0.00 0.00 56 942.8
20210618011707 68 183 1.0 2.0 0.00 0.00 0.00 56 942.7
20210618011606 68 183 1.0 2.0 0.00 0.00 0.00 57 942.8
20210618011505 68 182 1.0 2.0 0.00 0.00 0.00 56 942.7
20210618011404 68 182 1.0 2.0 0.00 0.00 0.00 56 942.8
20210618011301 68 182 1.0 2.0 0.00 0.00 0.00 56 942.7
20210618011202 68 182 1.0 2.0 0.00 0.00 0.00 56 942.7
20210618011101 68 183 1.0 2.0 0.00 0.00 0.00 56 942.7
20210618011003 68 183 1.0 2.0 0.00 0.00 0.00 55 942.7
20210618010902 68 183 1.0 2.0 0.00 0.00 0.00 57 942.7
20210618010802 67 183 1.0 2.0 0.00 0.00 0.00 57 942.6
20210618010659 67 183 1.0 2.0 0.00 0.00 0.00 57 942.7
20210618010555 67 183 1.0 2.0 0.00 0.00 0.00 60 942.7
20210618010456 67 183 1.0 2.0 0.00 0.00 0.00 60 942.7
20210618010355 67 183 1.0 2.0 0.00 0.00 0.00 59 942.7
20210618010255 67 183 2.0 2.0 0.00 0.00 0.00 62 942.7
20210618010148 67 182 2.0 2.0 0.00 0.00 0.00 58 942.7
20210618010048 67 182 2.0 2.0 0.00 0.00 0.00 61 942.7
20210618005949 67 182 2.0 2.0 0.00 0.00 0.00 62 942.7
20210618005848 67 182 1.0 2.0 0.00 0.00 0.00 60 942.6
20210618005748 67 182 1.0 2.0 0.00 0.00 0.00 58 942.5
20210618005643 67 178 1.0 3.0 0.00 0.00 0.00 60 942.5
20210618005545 67 177 1.0 3.0 0.00 0.00 0.00 61 942.6
20210618005443 68 176 1.0 3.0 0.00 0.00 0.00 62 942.5
20210618005342 68 175 1.0 3.0 0.00 0.00 0.00 63 942.5
20210618005239 68 175 1.0 3.0 0.00 0.00 0.00 61 942.5
20210618005134 68 175 1.0 3.0 0.00 0.00 0.00 62 942.5
20210618005034 68 175 1.0 3.0 0.00 0.00 0.00 60 942.5
20210618004935 68 175 1.0 3.0 0.00 0.00 0.00 59 942.5
20210618004834 68 175 1.0 3.0 0.00 0.00 0.00 58 942.5
20210618004734 68 176 1.0 3.0 0.00 0.00 0.00 59 942.5
20210618004632 68 157 1.0 2.0 0.00 0.00 0.00 58 942.6
20210618004532 68 157 1.0 2.0 0.00 0.00 0.00 57 942.6
20210618004434 68 156 1.0 2.0 0.00 0.00 0.00 56 942.6
20210618004331 68 161 1.0 3.0 0.00 0.00 0.00 57 942.5
20210618004228 68 161 1.0 3.0 0.00 0.00 0.00 57 942.4
20210618004121 68 160 1.0 3.0 0.00 0.00 0.00 57 942.5
20210618004022 68 159 1.0 3.0 0.00 0.00 0.00 58 942.5
20210618003921 68 159 1.0 3.0 0.00 0.00 0.00 58 942.5
20210618003822 68 159 1.0 3.0 0.00 0.00 0.00 57 942.4
20210618003722 68 159 1.0 3.0 0.00 0.00 0.00 59 942.5
20210618003622 68 159 2.0 3.0 0.00 0.00 0.00 59 942.5
20210618003520 68 159 2.0 3.0 0.00 0.00 0.00 62 942.5
20210618003420 68 159 2.0 3.0 0.00 0.00 0.00 57 942.5
20210618003318 68 167 2.0 3.0 0.00 0.00 0.00 62 942.5
20210618003216 68 171 2.0 3.0 0.00 0.00 0.00 63 942.5
20210618003113 68 169 2.0 3.0 0.00 0.00 0.00 60 942.5
20210618003014 68 169 2.0 3.0 0.00 0.00 0.00 63 942.4
20210618002913 68 169 2.0 3.0 0.00 0.00 0.00 60 942.5
20210618002813 69 168 2.0 3.0 0.00 0.00 0.00 63 942.6
20210618002710 69 169 2.0 3.0 0.00 0.00 0.00 59 942.5
20210618002603 69 169 1.0 3.0 0.00 0.00 0.00 60 942.4
20210618002503 69 169 1.0 4.0 0.00 0.00 0.00 60 942.5
20210618002403 69 169 1.0 4.0 0.00 0.00 0.00 58 942.5
20210618002305 69 167 1.0 4.0 0.00 0.00 0.00 61 942.5
20210618002204 69 167 1.0 4.0 0.00 0.00 0.00 61 942.5
20210618002104 69 171 1.0 4.0 0.00 0.00 0.00 62 942.5
20210618002002 69 63 1.0 4.0 0.00 0.00 0.00 60 942.5
20210618001900 69 57 1.0 4.0 0.00 0.00 0.00 63 942.5
20210618001801 69 54 1.0 4.0 0.00 0.00 0.00 63 942.5
20210618001658 69 53 1.0 4.0 0.00 0.00 0.00 62 942.5
20210618001555 69 173 1.0 4.0 0.00 0.00 0.00 61 942.5
20210618001455 69 169 1.0 4.0 0.00 0.00 0.00 62 942.5
20210618001354 69 147 1.0 3.0 0.00 0.00 0.00 61 942.4
20210618001253 69 146 1.0 3.0 0.00 0.00 0.00 59 942.5
20210618001152 69 144 1.0 3.0 0.00 0.00 0.00 57 942.5
20210618001047 69 144 1.0 3.0 0.00 0.00 0.00 57 942.5
20210618000947 69 144 1.0 3.0 0.00 0.00 0.00 57 942.5
20210618000846 69 140 1.0 3.0 0.00 0.00 0.00 57 942.5
20210618000745 69 140 1.0 3.0 0.00 0.00 0.00 56 942.4
20210618000647 69 139 1.0 3.0 0.00 0.00 0.00 57 942.5
20210618000540 69 138 1.0 3.0 0.00 0.00 0.00 55 942.5
20210618000442 70 129 1.0 2.0 0.00 0.00 0.00 57 942.5
20210618000340 70 128 1.0 2.0 0.00 0.00 0.00 58 942.5
20210618000240 70 128 1.0 2.0 0.00 0.00 0.00 57 942.6
20210618000140 70 128 1.0 2.0 0.00 0.00 0.00 58 942.6
20210618000038 70 127 1.0 2.0 0.00 0.00 0.00 56 942.5
20210617235938 70 136 1.0 2.0 0.00 0.00 0.00 57 942.4
20210617235837 70 136 1.0 2.0 0.00 0.00 0.00 56 942.4
20210617235736 70 136 1.0 2.0 0.00 0.00 0.00 56 942.4
20210617235634 70 136 1.0 2.0 0.00 0.00 0.00 57 942.5
20210617235529 70 136 1.0 2.0 0.00 0.00 0.00 56 942.5
20210617235431 70 136 1.0 2.0 0.00 0.00 0.00 58 942.4
20210617235330 70 132 1.0 2.0 0.00 0.00 0.00 58 942.5
20210617235231 70 132 1.0 2.0 0.00 0.00 0.00 57 942.5
20210617235128 70 131 1.0 2.0 0.00 0.00 0.00 59 942.5
20210617235024 70 131 1.0 2.0 0.00 0.00 0.00 57 942.5
20210617234921 70 131 1.0 2.0 0.00 0.00 0.00 57 942.5
20210617234822 70 131 1.0 2.0 0.00 0.00 0.00 56 942.5
20210617234721 70 131 1.0 2.0 0.00 0.00 0.00 57 942.5
20210617234622 70 131 1.0 2.0 0.00 0.00 0.00 57 942.5
20210617234516 70 131 1.0 2.0 0.00 0.00 0.00 58 942.5
20210617234415 70 131 1.0 2.0 0.00 0.00 0.00 57 942.4
20210617234315 71 131 1.0 2.0 0.00 0.00 0.00 57 942.5
20210617234217 70 131 1.0 2.0 0.00 0.00 0.00 57 942.5
20210617234115 71 130 1.0 2.0 0.00 0.00 0.00 56 942.4
20210617234010 71 130 1.0 2.0 0.00 0.00 0.00 56 942.4
20210617233911 71 130 1.0 2.0 0.00 0.00 0.00 56 942.4
20210617233810 71 130 1.0 2.0 0.00 0.00 0.00 56 942.4
20210617233709 71 130 1.0 2.0 0.00 0.00 0.00 56 942.4
20210617233610 71 130 1.0 2.0 0.00 0.00 0.00 56 942.4
20210617233505 71 130 1.0 2.0 0.00 0.00 0.00 55 942.4
20210617233404 71 117 0.0 2.0 0.00 0.00 0.00 57 942.4
20210617233305 71 117 0.0 1.0 0.00 0.00 0.00 56 942.5
20210617233204 71 117 0.0 1.0 0.00 0.00 0.00 57 942.4
20210617233104 71 117 0.0 1.0 0.00 0.00 0.00 56 942.4
20210617232959 71 117 0.0 1.0 0.00 0.00 0.00 56 942.5
20210617232901 71 117 0.0 1.0 0.00 0.00 0.00 56 942.4
20210617232759 71 117 0.0 1.0 0.00 0.00 0.00 55 942.4
20210617232701 71 117 0.0 2.0 0.00 0.00 0.00 55 942.4
20210617232558 71 117 0.0 2.0 0.00 0.00 0.00 56 942.4
20210617232452 71 117 0.0 2.0 0.00 0.00 0.00 55 942.3
20210617232353 71 117 0.0 2.0 0.00 0.00 0.00 54 942.4
20210617232253 71 117 0.0 2.0 0.00 0.00 0.00 54 942.3
20210617232151 71 117 0.0 2.0 0.00 0.00 0.00 54 942.3
20210617232052 71 117 0.0 2.0 0.00 0.00 0.00 54 942.3
20210617231952 71 117 0.0 2.0 0.00 0.00 0.00 54 942.2
20210617231849 71 117 0.0 2.0 0.00 0.00 0.00 53 942.3
20210617231750 71 117 0.0 2.0 0.00 0.00 0.00 54 942.2
20210617231647 71 117 0.0 1.0 0.00 0.00 0.00 54 942.2
20210617231547 71 117 0.0 3.0 0.00 0.00 0.00 53 942.2
20210617231439 71 117 0.0 3.0 0.00 0.00 0.00 53 942.3
20210617231340 72 117 0.0 3.0 0.00 0.00 0.00 52 942.2
20210617231240 72 117 1.0 3.0 0.00 0.00 0.00 52 942.2
20210617231140 72 117 1.0 3.0 0.00 0.00 0.00 52 942.2
20210617231040 72 117 1.0 3.0 0.00 0.00 0.00 52 942.2
20210617230935 72 117 1.0 3.0 0.00 0.00 0.00 52 942.2
20210617230833 72 117 1.0 3.0 0.00 0.00 0.00 52 942.2
20210617230733 72 117 1.0 3.0 0.00 0.00 0.00 51 942.1
20210617230634 72 117 1.0 3.0 0.00 0.00 0.00 51 942.2
20210617230533 72 128 1.0 3.0 0.00 0.00 0.00 51 942.2
20210617230434 72 128 1.0 3.0 0.00 0.00 0.00 52 942.2
20210617230331 72 128 1.0 3.0 0.00 0.00 0.00 51 942.2
20210617230231 72 92 1.0 2.0 0.00 0.00 0.00 53 942.1
20210617230131 72 92 1.0 3.0 0.00 0.00 0.00 51 942.2
20210617230028 72 92 1.0 3.0 0.00 0.00 0.00 53 942.1
20210617225925 72 90 1.0 3.0 0.00 0.00 0.00 52 942.1
20210617225826 72 130 1.0 3.0 0.00 0.00 0.00 53 942.0
20210617225724 72 130 1.0 3.0 0.00 0.00 0.00 53 942.1
20210617225624 72 130 1.0 3.0 0.00 0.00 0.00 53 942.0
20210617225522 72 130 1.0 3.0 0.00 0.00 0.00 53 942.0
20210617225415 72 130 1.0 3.0 0.00 0.00 0.00 51 942.0
20210617225315 72 130 1.0 3.0 0.00 0.00 0.00 51 942.0
20210617225215 72 130 1.0 3.0 0.00 0.00 0.00 51 941.9
20210617225118 72 130 1.0 3.0 0.00 0.00 0.00 51 941.9
20210617225016 72 130 1.0 3.0 0.00 0.00 0.00 52 941.9
20210617224913 72 130 1.0 3.0 0.00 0.00 0.00 52 942.0
20210617224810 72 254 1.0 3.0 0.00 0.00 0.00 52 941.9
20210617224710 72 254 1.0 3.0 0.00 0.00 0.00 51 941.9
20210617224611 72 254 1.0 3.0 0.00 0.00 0.00 51 941.9
20210617224510 72 254 1.0 3.0 0.00 0.00 0.00 51 941.8
20210617224403 72 144 1.0 4.0 0.00 0.00 0.00 50 941.9
20210617224304 72 144 1.0 4.0 0.00 0.00 0.00 51 941.8
20210617224203 72 133 1.0 4.0 0.00 0.00 0.00 52 941.8
20210617224104 72 133 1.0 4.0 0.00 0.00 0.00 51 941.8
20210617224004 72 133 1.0 4.0 0.00 0.00 0.00 51 941.8
20210617223858 72 156 1.0 4.0 0.00 0.00 0.00 51 941.8
20210617223758 72 156 1.0 4.0 0.00 0.00 0.00 50 941.9
20210617223657 72 156 1.0 4.0 0.00 0.00 0.00 51 941.8
20210617223557 72 156 1.0 4.0 0.00 0.00 0.00 51 941.9
20210617223458 72 159 1.0 4.0 0.00 0.00 0.00 50 941.9
20210617223354 72 130 1.0 4.0 0.00 0.00 0.00 52 941.9
20210617223251 72 175 1.0 6.0 0.00 0.00 0.00 51 941.9
20210617223152 72 190 1.0 6.0 0.00 0.00 0.00 53 941.9
20210617223052 72 190 1.0 6.0 0.00 0.00 0.00 52 941.8
20210617222952 72 190 1.0 6.0 0.00 0.00 0.00 52 941.8
20210617222848 72 123 1.0 6.0 0.00 0.00 0.00 52 941.9
20210617222746 72 123 1.0 6.0 0.00 0.00 0.00 50 941.8
20210617222646 72 137 1.0 6.0 0.00 0.00 0.00 53 941.8
20210617222546 72 138 1.0 6.0 0.00 0.00 0.00 51 941.8
20210617222446 72 140 1.0 6.0 0.00 0.00 0.00 51 941.8
20210617222339 72 140 1.0 6.0 0.00 0.00 0.00 52 941.8
20210617222240 72 138 1.0 4.0 0.00 0.00 0.00 56 941.8
20210617222140 72 138 1.0 4.0 0.00 0.00 0.00 54 941.8
20210617222039 73 138 1.0 4.0 0.00 0.00 0.00 51 941.8
20210617221940 73 138 1.0 4.0 0.00 0.00 0.00 52 941.7
20210617221836 73 138 1.0 4.0 0.00 0.00 0.00 51 941.7
20210617221733 73 138 1.0 4.0 0.00 0.00 0.00 50 941.7
20210617221636 73 115 2.0 4.0 0.00 0.00 0.00 50 941.7
20210617221534 73 115 2.0 4.0 0.00 0.00 0.00 50 941.7
20210617221434 73 129 2.0 4.0 0.00 0.00 0.00 51 941.7
20210617221331 73 127 2.0 4.0 0.00 0.00 0.00 50 941.7
20210617221227 73 104 2.0 4.0 0.00 0.00 0.00 50 941.7
20210617221128 73 165 2.0 4.0 0.00 0.00 0.00 50 941.6
20210617221027 73 122 2.0 4.0 0.00 0.00 0.00 50 941.7
20210617220928 73 134 2.0 4.0 0.00 0.00 0.00 51 941.7
20210617220823 73 119 2.0 4.0 0.00 0.00 0.00 51 941.7
20210617220721 73 117 2.0 4.0 0.00 0.00 0.00 51 941.7
20210617220622 73 144 2.0 4.0 0.00 0.00 0.00 52 941.6
20210617220523 73 144 2.0 4.0 0.00 0.00 0.00 50 941.7
20210617220422 73 125 2.0 4.0 0.00 0.00 0.00 50 941.6
20210617220319 73 111 2.0 4.0 0.00 0.00 0.00 50 941.6
20210617220220 73 108 2.0 4.0 0.00 0.00 0.00 49 941.7
20210617220119 73 105 2.0 4.0 0.00 0.00 0.00 51 941.7
20210617220017 73 105 2.0 4.0 0.00 0.00 0.00 51 941.6
20210617215916 73 170 2.0 4.0 0.00 0.00 0.00 49 941.6
20210617215814 73 138 2.0 4.0 0.00 0.00 0.00 50 941.6
20210617215715 73 139 2.0 4.0 0.00 0.00 0.00 49 941.7
20210617215613 73 136 2.0 4.0 0.00 0.00 0.00 49 941.7
20210617215512 73 135 1.0 4.0 0.00 0.00 0.00 50 941.6
20210617215410 73 138 1.0 4.0 0.00 0.00 0.00 51 941.6
20210617215305 73 119 1.0 4.0 0.00 0.00 0.00 50 941.6
20210617215204 73 122 1.0 4.0 0.00 0.00 0.00 52 941.7
20210617215103 73 126 1.0 3.0 0.00 0.00 0.00 52 941.6
20210617215003 73 127 1.0 4.0 0.00 0.00 0.00 52 941.6
20210617214904 73 127 2.0 4.0 0.00 0.00 0.00 50 941.6
20210617214759 73 74 2.0 6.0 0.00 0.00 0.00 54 941.6
20210617214659 73 74 1.0 6.0 0.00 0.00 0.00 52 941.6
20210617214558 74 74 1.0 6.0 0.00 0.00 0.00 52 941.6
20210617214459 74 74 1.0 6.0 0.00 0.00 0.00 49 941.7
20210617214357 74 138 1.0 6.0 0.00 0.00 0.00 50 941.6
20210617214251 74 121 1.0 6.0 0.00 0.00 0.00 51 941.7
20210617214151 74 121 1.0 6.0 0.00 0.00 0.00 51 941.7
20210617214053 74 120 1.0 6.0 0.00 0.00 0.00 49 941.7
20210617213953 74 74 1.0 6.0 0.00 0.00 0.00 48 941.6
20210617213852 74 111 1.0 6.0 0.00 0.00 0.00 52 941.6
20210617213748 74 98 1.0 3.0 0.00 0.00 0.00 49 941.6
20210617213645 74 100 1.0 3.0 0.00 0.00 0.00 48 941.7
20210617213547 74 100 1.0 3.0 0.00 0.00 0.00 48 941.7
20210617213446 74 100 1.0 3.0 0.00 0.00 0.00 48 941.7
20210617213346 74 100 1.0 3.0 0.00 0.00 0.00 50 941.7
20210617213240 74 110 1.0 3.0 0.00 0.00 0.00 49 941.7
20210617213140 74 111 1.0 3.0 0.00 0.00 0.00 50 941.7
20210617213041 74 111 1.0 3.0 0.00 0.00 0.00 52 941.7
20210617212939 74 113 1.0 3.0 0.00 0.00 0.00 50 941.7
20210617212840 74 54 1.0 3.0 0.00 0.00 0.00 48 941.7
20210617212735 74 158 1.0 3.0 0.00 0.00 0.00 51 941.6
20210617212633 75 158 2.0 4.0 0.00 0.00 0.00 51 941.7
20210617212534 75 158 2.0 4.0 0.00 0.00 0.00 51 941.7
20210617212433 75 184 2.0 4.0 0.00 0.00 0.00 50 941.7
20210617212335 76 240 2.0 4.0 0.00 0.00 0.00 48 941.7
20210617212231 76 69 1.0 4.0 0.00 0.00 0.00 47 941.7
20210617212131 75 97 1.0 4.0 0.00 0.00 0.00 46 941.6
20210617212029 75 120 1.0 4.0 0.00 0.00 0.00 47 941.7
20210617211930 75 144 1.0 4.0 0.00 0.00 0.00 45 941.7
20210617211827 75 148 1.0 4.0 0.00 0.00 0.00 45 941.7
20210617211725 75 107 1.0 4.0 0.00 0.00 0.00 45 941.7
20210617211623 76 125 1.0 4.0 0.00 0.00 0.00 46 941.7
20210617211523 76 266 1.0 4.0 0.00 0.00 0.00 44 941.7
20210617211423 76 123 1.0 4.0 0.00 0.00 0.00 42 941.7
20210617211322 76 94 1.0 4.0 0.00 0.00 0.00 41 941.6
20210617211221 77 94 1.0 4.0 0.00 0.00 0.00 40 941.7
20210617211120 77 94 1.0 4.0 0.00 0.00 0.00 40 941.7
20210617211022 77 94 1.0 4.0 0.00 0.00 0.00 40 941.7
20210617210917 78 94 1.0 4.0 0.00 0.00 0.00 39 941.6
20210617210816 78 94 1.0 4.0 0.00 0.00 0.00 41 941.7
20210617210714 78 73 1.0 4.0 0.00 0.00 0.00 42 941.7
20210617210617 77 74 1.0 4.0 0.00 0.00 0.00 44 941.7
20210617210514 76 74 1.0 4.0 0.00 0.00 0.00 43 941.7
20210617210412 76 101 1.0 4.0 0.00 0.00 0.00 40 941.7
20210617210310 76 101 1.0 4.0 0.00 0.00 0.00 41 941.7
20210617210207 76 107 1.0 4.0 0.00 0.00 0.00 44 941.7
20210617210107 76 116 2.0 4.0 0.00 0.00 0.00 42 941.7
20210617210007 76 116 2.0 4.0 0.00 0.00 0.00 44 941.7
20210617205906 75 116 2.0 4.0 0.00 0.00 0.00 42 941.8
20210617205804 75 116 2.0 4.0 0.00 0.00 0.00 42 941.8
20210617205657 75 136 2.0 5.0 0.00 0.00 0.00 41 941.7
20210617205558 75 134 2.0 5.0 0.00 0.00 0.00 41 941.8
20210617205458 75 128 2.0 5.0 0.00 0.00 0.00 41 941.8
20210617205356 75 123 2.0 5.0 0.00 0.00 0.00 40 941.8
20210617205258 75 123 2.0 5.0 0.00 0.00 0.00 40 941.8
20210617205155 75 116 2.0 5.0 0.00 0.00 0.00 39 941.8
20210617205057 75 116 2.0 5.0 0.00 0.00 0.00 42 941.8
20210617204956 75 128 2.0 5.0 0.00 0.00 0.00 40 941.8
20210617204854 76 135 2.0 5.0 0.00 0.00 0.00 43 941.7
20210617204755 76 141 1.0 4.0 0.00 0.00 0.00 41 941.8
20210617204647 77 134 1.0 4.0 0.00 0.00 0.00 38 941.7
20210617204545 77 136 1.0 4.0 0.00 0.00 0.00 41 941.8
20210617204446 77 76 1.0 4.0 0.00 0.00 0.00 43 941.8
20210617204345 76 53 1.0 4.0 0.00 0.00 0.00 43 941.7
20210617204246 76 134 1.0 3.0 0.00 0.00 0.00 42 941.8
20210617204139 76 134 1.0 3.0 0.00 0.00 0.00 41 941.8
20210617204039 77 135 1.0 3.0 0.00 0.00 0.00 39 941.7
20210617203939 77 132 1.0 4.0 0.00 0.00 0.00 39 941.8
20210617203839 77 318 1.0 5.0 0.00 0.00 0.00 42 941.8
20210617203740 77 78 2.0 5.0 0.00 0.00 0.00 38 941.7
20210617203636 77 76 2.0 5.0 0.00 0.00 0.00 44 941.8
20210617203533 78 24 2.0 5.0 0.00 0.00 0.00 40 941.9
20210617203433 78 24 3.0 6.0 0.00 0.00 0.00 44 941.8
20210617203335 78 24 3.0 7.0 0.00 0.00 0.00 44 941.8
20210617203234 78 22 3.0 7.0 0.00 0.00 0.00 44 941.9
20210617203127 78 345 3.0 7.0 0.00 0.00 0.00 41 941.9
20210617203028 78 336 3.0 7.0 0.00 0.00 0.00 40 941.9
20210617202929 78 340 2.0 7.0 0.00 0.00 0.00 42 941.9
20210617202828 78 299 2.0 7.0 0.00 0.00 0.00 41 941.9
20210617202728 77 311 2.0 7.0 0.00 0.00 0.00 42 941.9
20210617202624 77 47 2.0 7.0 0.00 0.00 0.00 42 941.9
20210617202521 77 54 2.0 7.0 0.00 0.00 0.00 42 941.9
20210617202421 76 74 2.0 6.0 0.00 0.00 0.00 43 941.9
20210617202320 76 90 2.0 5.0 0.00 0.00 0.00 44 941.9
20210617202226 76 50 2.0 5.0 0.00 0.00 0.00 48 941.9
20210617202119 75 355 2.0 5.0 0.00 0.00 0.00 42 941.9
20210617202020 75 177 2.0 6.0 0.00 0.00 0.00 42 941.9
20210617201919 75 155 2.0 6.0 0.00 0.00 0.00 40 941.9
20210617201818 76 126 3.0 8.0 0.00 0.00 0.00 39 942.0
20210617201716 76 111 3.0 8.0 0.00 0.00 0.00 38 941.9
20210617201611 77 111 4.0 8.0 0.00 0.00 0.00 39 941.9
20210617201511 78 96 4.0 9.0 0.00 0.00 0.00 44 941.9
20210617201410 77 63 4.0 9.0 0.00 0.00 0.00 44 941.8
20210617201311 77 40 4.0 9.0 0.00 0.00 0.00 42 941.8
20210617201210 77 48 5.0 9.0 0.00 0.00 0.00 44 941.8
20210617201104 76 58 4.0 9.0 0.00 0.00 0.00 43 941.8
20210617201004 76 67 4.0 9.0 0.00 0.00 0.00 42 941.9
20210617200905 76 80 4.0 9.0 0.00 0.00 0.00 47 941.8
20210617200803 76 93 4.0 9.0 0.00 0.00 0.00 44 941.8
20210617200705 76 119 4.0 9.0 0.00 0.00 0.00 41 941.7
20210617200600 76 123 4.0 9.0 0.00 0.00 0.00 45 941.8
20210617200459 75 96 3.0 8.0 0.00 0.00 0.00 46 941.8
20210617200359 75 68 3.0 7.0 0.00 0.00 0.00 46 941.7
20210617200300 74 109 3.0 7.0 0.00 0.00 0.00 43 941.8
20210617200158 75 101 3.0 7.0 0.00 0.00 0.00 43 941.8
20210617200054 74 86 3.0 7.0 0.00 0.00 0.00 44 941.7
20210617195952 74 106 3.0 7.0 0.00 0.00 0.00 44 941.7
20210617195852 75 120 3.0 7.0 0.00 0.00 0.00 42 941.8
20210617195752 75 124 3.0 7.0 0.00 0.00 0.00 41 941.8
20210617195652 75 121 2.0 7.0 0.00 0.00 0.00 46 941.8
20210617195545 74 111 2.0 8.0 0.00 0.00 0.00 45 941.8
20210617195446 74 130 3.0 8.0 0.00 0.00 0.00 43 941.9
20210617195346 74 132 3.0 8.0 0.00 0.00 0.00 43 941.9
20210617195245 74 144 2.0 8.0 0.00 0.00 0.00 43 941.9
20210617195145 74 128 2.0 8.0 0.00 0.00 0.00 43 941.9
20210617195040 74 128 2.0 8.0 0.00 0.00 0.00 43 941.9
20210617194939 75 119 2.0 8.0 0.00 0.00 0.00 43 941.8
20210617194839 75 128 2.0 8.0 0.00 0.00 0.00 44 941.9
20210617194741 76 117 2.0 8.0 0.00 0.00 0.00 41 941.9
20210617194641 76 124 2.0 8.0 0.00 0.00 0.00 41 942.0
20210617194534 76 287 2.0 4.0 0.00 0.00 0.00 43 941.9
20210617194433 76 340 2.0 4.0 0.00 0.00 0.00 46 942.0
20210617194334 77 52 2.0 4.0 0.00 0.00 0.00 48 941.9
20210617194234 76 49 2.0 4.0 0.00 0.00 0.00 45 941.9
20210617194135 76 94 2.0 4.0 0.00 0.00 0.00 45 942.0
20210617194027 75 270 2.0 4.0 0.00 0.00 0.00 45 942.0
20210617193926 75 258 1.0 4.0 0.00 0.00 0.00 47 942.0
20210617193829 76 155 1.0 4.0 0.00 0.00 0.00 43 942.1
20210617193727 76 93 1.0 4.0 0.00 0.00 0.00 44 942.0
20210617193628 76 76 1.0 4.0 0.00 0.00 0.00 43 942.0
20210617193523 76 113 1.0 4.0 0.00 0.00 0.00 43 942.1
20210617193422 76 107 1.0 3.0 0.00 0.00 0.00 48 942.0
20210617193322 76 317 1.0 3.0 0.00 0.00 0.00 46 942.0
20210617193221 76 321 2.0 3.0 0.00 0.00 0.00 42 942.0
20210617193122 76 323 2.0 3.0 0.00 0.00 0.00 44 942.1
20210617193016 75 317 2.0 3.0 0.00 0.00 0.00 47 942.1
20210617192915 74 317 2.0 3.0 0.00 0.00 0.00 44 942.2
20210617192816 74 306 2.0 3.0 0.00 0.00 0.00 44 942.1
20210617192715 74 238 2.0 3.0 0.00 0.00 0.00 44 942.1
20210617192617 74 251 2.0 3.0 0.00 0.00 0.00 45 942.2
20210617192512 74 255 2.0 4.0 0.00 0.00 0.00 46 942.1
20210617192415 74 256 2.0 4.0 0.00 0.00 0.00 46 942.1
20210617192314 74 256 2.0 4.0 0.00 0.00 0.00 51 942.2
20210617192212 74 257 2.0 4.0 0.00 0.00 0.00 49 942.1
20210617192110 74 257 2.0 4.0 0.00 0.00 0.00 48 942.1
20210617192003 73 59 2.0 4.0 0.00 0.00 0.00 45 942.1
20210617191904 73 134 2.0 5.0 0.00 0.00 0.00 44 942.1
20210617191803 73 134 2.0 6.0 0.00 0.00 0.00 45 942.2
20210617191703 73 134 2.0 6.0 0.00 0.00 0.00 42 942.2
20210617191604 73 135 2.0 6.0 0.00 0.00 0.00 41 942.3
20210617191502 74 117 2.0 6.0 0.00 0.00 0.00 41 942.2
20210617191401 74 116 2.0 6.0 0.00 0.00 0.00 42 942.2
20210617191301 75 115 2.0 6.0 0.00 0.00 0.00 42 942.3
20210617191200 75 282 2.0 6.0 0.00 0.00 0.00 45 942.2
20210617191058 75 334 2.0 6.0 0.00 0.00 0.00 46 942.3
20210617190952 76 116 2.0 6.0 0.00 0.00 0.00 41 942.2
20210617190851 76 119 2.0 6.0 0.00 0.00 0.00 46 942.3
20210617190752 76 329 3.0 6.0 0.00 0.00 0.00 44 942.3
20210617190651 76 315 3.0 6.0 0.00 0.00 0.00 43 942.3
20210617190552 76 323 3.0 6.0 0.00 0.00 0.00 44 942.3
20210617190446 76 302 3.0 6.0 0.00 0.00 0.00 44 942.3
20210617190345 76 346 3.0 6.0 0.00 0.00 0.00 45 942.3
20210617190246 76 107 3.0 6.0 0.00 0.00 0.00 45 942.4
20210617190145 77 34 2.0 5.0 0.00 0.00 0.00 42 942.3
20210617190046 77 9 2.0 5.0 0.00 0.00 0.00 45 942.4
20210617185940 77 332 2.0 5.0 0.00 0.00 0.00 43 942.4
20210617185840 76 325 2.0 5.0 0.00 0.00 0.00 44 942.4
20210617185740 76 351 2.0 6.0 0.00 0.00 0.00 43 942.3
20210617185639 76 355 2.0 6.0 0.00 0.00 0.00 45 942.3
20210617185540 76 36 2.0 6.0 0.00 0.00 0.00 48 942.3
20210617185433 76 292 2.0 6.0 0.00 0.00 0.00 47 942.4
20210617185334 75 305 2.0 6.0 0.00 0.00 0.00 46 942.5
20210617185234 75 298 2.0 6.0 0.00 0.00 0.00 44 942.5
20210617185134 75 335 2.0 6.0 0.00 0.00 0.00 52 942.5
20210617185033 74 153 2.0 6.0 0.00 0.00 0.00 50 942.5
20210617184931 74 136 2.0 6.0 0.00 0.00 0.00 40 942.6
20210617184829 75 281 2.0 6.0 0.00 0.00 0.00 44 942.6
20210617184731 75 269 2.0 5.0 0.00 0.00 0.00 45 942.6
20210617184630 76 355 2.0 5.0 0.00 0.00 0.00 43 942.6
20210617184528 75 348 2.0 5.0 0.00 0.00 0.00 48 942.6